Wetterdaten: Mittwoch, 03.12.2014
Datum Zeit Temp. Aussen +5cm Feuchte Auss Luftdruck Regen Sonnenschein Regendauer Solar Windben
03.12.2014 00:00 1,1 C 0,0 C 87 % 1018,3 hPa 0,0 l/m 0 min 0 min 0 W/m 16,7 km/h (3 Bft)
03.12.2014 00:02 1,1 C 0,0 C 87 % 1018,2 hPa 0,0 l/m 0 min 0 min 0 W/m 14,6 km/h (3 Bft)
03.12.2014 00:05 1,1 C 0,0 C 88 % 1018,3 hPa 0,0 l/m 0 min 0 min 0 W/m 18,8 km/h (3 Bft)
03.12.2014 00:06 1,1 C 0,0 C 88 % 1018,2 hPa 0,0 l/m 0 min 0 min 0 W/m 18,8 km/h (3 Bft)
03.12.2014 00:08 1,1 C 0,0 C 88 % 1018,2 hPa 0,0 l/m 0 min 0 min 0 W/m 18,8 km/h (3 Bft)
03.12.2014 00:10 1,1 C 0,0 C 88 % 1018,2 hPa 0,0 l/m 0 min 0 min 0 W/m 16,7 km/h (3 Bft)
03.12.2014 00:12 1,0 C 0,0 C 88 % 1018,2 hPa 0,0 l/m 0 min 0 min 0 W/m 16,7 km/h (3 Bft)
03.12.2014 00:14 1,0 C 0,0 C 88 % 1018,2 hPa 0,0 l/m 0 min 0 min 0 W/m 14,6 km/h (3 Bft)
03.12.2014 00:16 1,0 C 0,0 C 88 % 1018,2 hPa 0,0 l/m 0 min 0 min 0 W/m 12,6 km/h (3 Bft)
03.12.2014 00:18 1,0 C 0,0 C 88 % 1018,2 hPa 0,0 l/m 0 min 0 min 0 W/m 12,6 km/h (3 Bft)
03.12.2014 00:20 1,0 C 0,0 C 88 % 1018,1 hPa 0,0 l/m 0 min 0 min 0 W/m 16,7 km/h (3 Bft)
03.12.2014 00:22 1,0 C 0,0 C 88 % 1018,1 hPa 0,0 l/m 0 min 0 min 0 W/m 14,6 km/h (3 Bft)
03.12.2014 00:24 1,0 C 0,0 C 88 % 1018,2 hPa 0,0 l/m 0 min 0 min 0 W/m 12,6 km/h (3 Bft)
03.12.2014 00:26 1,0 C 0,0 C 88 % 1018,2 hPa 0,0 l/m 0 min 0 min 0 W/m 14,6 km/h (3 Bft)
03.12.2014 00:28 1,0 C 0,0 C 88 % 1018,2 hPa 0,0 l/m 0 min 0 min 0 W/m 12,6 km/h (3 Bft)
03.12.2014 00:30 0,9 C 0,0 C 88 % 1018,2 hPa 0,0 l/m 0 min 0 min 0 W/m 8,4 km/h (2 Bft)
03.12.2014 00:32 0,9 C 0,0 C 88 % 1018,2 hPa 0,0 l/m 0 min 0 min 0 W/m 10,5 km/h (2 Bft)
03.12.2014 00:34 0,9 C 0,0 C 88 % 1018,2 hPa 0,0 l/m 0 min 0 min 0 W/m 12,6 km/h (3 Bft)
03.12.2014 00:36 0,9 C 0,0 C 88 % 1018,2 hPa 0,0 l/m 0 min 0 min 0 W/m 14,6 km/h (3 Bft)
03.12.2014 00:38 0,9 C 0,0 C 88 % 1018,2 hPa 0,0 l/m 0 min 0 min 0 W/m 12,6 km/h (3 Bft)
03.12.2014 00:40 0,9 C 0,0 C 88 % 1018,2 hPa 0,0 l/m 0 min 0 min 0 W/m 10,5 km/h (2 Bft)
03.12.2014 00:42 0,9 C 0,0 C 88 % 1018,2 hPa 0,0 l/m 0 min 0 min 0 W/m 10,5 km/h (2 Bft)
03.12.2014 00:44 0,9 C 0,0 C 88 % 1018,2 hPa 0,0 l/m 0 min 0 min 0 W/m 12,6 km/h (3 Bft)
03.12.2014 00:46 0,9 C 0,0 C 88 % 1018,2 hPa 0,0 l/m 0 min 0 min 0 W/m 12,6 km/h (3 Bft)
03.12.2014 00:48 0,9 C 0,0 C 88 % 1018,3 hPa 0,0 l/m 0 min 0 min 0 W/m 12,6 km/h (3 Bft)
03.12.2014 00:50 0,9 C 0,0 C 88 % 1018,3 hPa 0,0 l/m 0 min 0 min 0 W/m 8,4 km/h (2 Bft)
03.12.2014 00:52 0,9 C 0,0 C 88 % 1018,3 hPa 0,0 l/m 0 min 0 min 0 W/m 12,6 km/h (3 Bft)
03.12.2014 00:54 0,9 C 0,0 C 88 % 1018,3 hPa 0,0 l/m 0 min 0 min 0 W/m 16,7 km/h (3 Bft)
03.12.2014 00:56 0,9 C 0,0 C 88 % 1018,3 hPa 0,0 l/m 0 min 0 min 0 W/m 16,7 km/h (3 Bft)
03.12.2014 00:58 0,9 C 0,0 C 88 % 1018,4 hPa 0,0 l/m 0 min 0 min 0 W/m 14,6 km/h (3 Bft)
03.12.2014 01:00 0,9 C 0,0 C 88 % 1018,4 hPa 0,0 l/m 0 min 0 min 0 W/m 16,7 km/h (3 Bft)
03.12.2014 01:02 0,9 C 0,0 C 88 % 1018,4 hPa 0,0 l/m 0 min 0 min 0 W/m 10,5 km/h (2 Bft)
03.12.2014 01:04 0,9 C 0,0 C 88 % 1018,3 hPa 0,0 l/m 0 min 0 min 0 W/m 12,6 km/h (3 Bft)
03.12.2014 01:06 0,9 C 0,0 C 88 % 1018,4 hPa 0,0 l/m 0 min 0 min 0 W/m 14,6 km/h (3 Bft)
03.12.2014 01:08 0,9 C 0,0 C 88 % 1018,4 hPa 0,0 l/m 0 min 0 min 0 W/m 12,6 km/h (3 Bft)
03.12.2014 01:10 0,9 C 0,0 C 88 % 1018,4 hPa 0,0 l/m 0 min 0 min 0 W/m 14,6 km/h (3 Bft)
03.12.2014 01:12 0,9 C 0,0 C 88 % 1018,4 hPa 0,0 l/m 0 min 0 min 0 W/m 12,6 km/h (3 Bft)
03.12.2014 01:14 0,9 C 0,0 C 88 % 1018,4 hPa 0,0 l/m 0 min 0 min 0 W/m 10,5 km/h (2 Bft)
03.12.2014 01:16 0,9 C 0,0 C 88 % 1018,4 hPa 0,0 l/m 0 min 0 min 0 W/m 16,7 km/h (3 Bft)
03.12.2014 01:18 0,9 C 0,0 C 88 % 1018,4 hPa 0,0 l/m 0 min 0 min 0 W/m 18,8 km/h (3 Bft)
03.12.2014 01:20 0,9 C 0,0 C 88 % 1018,4 hPa 0,0 l/m 0 min 0 min 0 W/m 16,7 km/h (3 Bft)
03.12.2014 01:22 0,9 C 0,0 C 88 % 1018,4 hPa 0,0 l/m 0 min 0 min 0 W/m 14,6 km/h (3 Bft)
03.12.2014 01:24 0,9 C 0,0 C 88 % 1018,4 hPa 0,0 l/m 0 min 0 min 0 W/m 14,6 km/h (3 Bft)
03.12.2014 01:26 0,9 C 0,0 C 88 % 1018,4 hPa 0,0 l/m 0 min 0 min 0 W/m 12,6 km/h (3 Bft)
03.12.2014 01:28 0,9 C 0,0 C 88 % 1018,4 hPa 0,0 l/m 0 min 0 min 0 W/m 16,7 km/h (3 Bft)
03.12.2014 01:30 0,9 C 0,0 C 88 % 1018,3 hPa 0,0 l/m 0 min 0 min 0 W/m 16,7 km/h (3 Bft)
03.12.2014 01:32 0,9 C 0,0 C 88 % 1018,3 hPa 0,0 l/m 0 min 0 min 0 W/m 14,6 km/h (3 Bft)
03.12.2014 01:34 0,9 C 0,0 C 88 % 1018,3 hPa 0,0 l/m 0 min 0 min 0 W/m 12,6 km/h (3 Bft)
03.12.2014 01:36 0,9 C 0,0 C 88 % 1018,3 hPa 0,0 l/m 0 min 0 min 0 W/m 8,4 km/h (2 Bft)
03.12.2014 01:38 0,9 C 0,0 C 88 % 1018,3 hPa 0,0 l/m 0 min 0 min 0 W/m 12,6 km/h (3 Bft)
03.12.2014 01:40 0,9 C 0,0 C 88 % 1018,4 hPa 0,0 l/m 0 min 0 min 0 W/m 12,6 km/h (3 Bft)
03.12.2014 01:42 0,9 C 0,0 C 88 % 1018,4 hPa 0,0 l/m 0 min 0 min 0 W/m 10,5 km/h (2 Bft)
03.12.2014 01:44 0,9 C 0,0 C 88 % 1018,3 hPa 0,0 l/m 0 min 0 min 0 W/m 12,6 km/h (3 Bft)
03.12.2014 01:46 0,9 C 0,0 C 88 % 1018,3 hPa 0,0 l/m 0 min 0 min 0 W/m 10,5 km/h (2 Bft)
03.12.2014 01:48 0,9 C 0,0 C 88 % 1018,4 hPa 0,0 l/m 0 min 0 min 0 W/m 14,6 km/h (3 Bft)
03.12.2014 01:50 0,9 C 0,0 C 88 % 1018,4 hPa 0,0 l/m 0 min 0 min 0 W/m 12,6 km/h (3 Bft)
03.12.2014 01:52 0,9 C 0,0 C 88 % 1018,4 hPa 0,0 l/m 0 min 0 min 0 W/m 10,5 km/h (2 Bft)
03.12.2014 01:54 0,9 C 0,0 C 88 % 1018,4 hPa 0,0 l/m 0 min 0 min 0 W/m 16,7 km/h (3 Bft)
03.12.2014 01:56 0,9 C 0,0 C 88 % 1018,5 hPa 0,0 l/m 0 min 0 min 0 W/m 12,6 km/h (3 Bft)
03.12.2014 01:58 0,9 C 0,0 C 88 % 1018,4 hPa 0,0 l/m 0 min 0 min 0 W/m 8,4 km/h (2 Bft)
03.12.2014 02:00 0,9 C 0,0 C 88 % 1018,5 hPa 0,0 l/m 0 min 0 min 0 W/m 18,8 km/h (3 Bft)
03.12.2014 02:02 0,9 C 0,0 C 88 % 1018,4 hPa 0,0 l/m 0 min 0 min 0 W/m 14,6 km/h (3 Bft)
03.12.2014 02:04 0,9 C 0,0 C 88 % 1018,5 hPa 0,0 l/m 0 min 0 min 0 W/m 16,7 km/h (3 Bft)
03.12.2014 02:06 0,9 C 0,0 C 88 % 1018,4 hPa 0,0 l/m 0 min 0 min 0 W/m 16,7 km/h (3 Bft)
03.12.2014 02:08 0,9 C 0,0 C 88 % 1018,4 hPa 0,0 l/m 0 min 0 min 0 W/m 12,6 km/h (3 Bft)
03.12.2014 02:10 0,9 C 0,0 C 88 % 1018,4 hPa 0,0 l/m 0 min 0 min 0 W/m 16,7 km/h (3 Bft)
03.12.2014 02:12 0,8 C 0,0 C 88 % 1018,5 hPa 0,0 l/m 0 min 0 min 0 W/m 14,6 km/h (3 Bft)
03.12.2014 02:14 0,8 C 0,0 C 88 % 1018,5 hPa 0,0 l/m 0 min 0 min 0 W/m 20,9 km/h (4 Bft)
03.12.2014 02:16 0,8 C 0,0 C 88 % 1018,4 hPa 0,0 l/m 0 min 0 min 0 W/m 16,7 km/h (3 Bft)
03.12.2014 02:18 0,8 C 0,0 C 88 % 1018,4 hPa 0,0 l/m 0 min 0 min 0 W/m 12,6 km/h (3 Bft)
03.12.2014 02:20 0,8 C 0,0 C 88 % 1018,5 hPa 0,0 l/m 0 min 0 min 0 W/m 16,7 km/h (3 Bft)
03.12.2014 02:22 0,8 C 0,0 C 88 % 1018,5 hPa 0,0 l/m 0 min 0 min 0 W/m 16,7 km/h (3 Bft)
03.12.2014 02:24 0,8 C 0,0 C 88 % 1018,5 hPa 0,0 l/m 0 min 0 min 0 W/m 16,7 km/h (3 Bft)
03.12.2014 02:26 0,8 C 0,0 C 88 % 1018,5 hPa 0,0 l/m 0 min 0 min 0 W/m 23,0 km/h (4 Bft)
03.12.2014 02:28 0,8 C 0,0 C 88 % 1018,5 hPa 0,0 l/m 0 min 0 min 0 W/m 16,7 km/h (3 Bft)
03.12.2014 02:30 0,7 C 0,0 C 88 % 1018,5 hPa 0,0 l/m 0 min 0 min 0 W/m 14,6 km/h (3 Bft)
03.12.2014 02:32 0,7 C 0,0 C 88 % 1018,5 hPa 0,0 l/m 0 min 0 min 0 W/m 16,7 km/h (3 Bft)
03.12.2014 02:34 0,7 C 0,0 C 88 % 1018,5 hPa 0,0 l/m 0 min 0 min 0 W/m 18,8 km/h (3 Bft)
03.12.2014 02:36 0,7 C 0,0 C 88 % 1018,6 hPa 0,0 l/m 0 min 0 min 0 W/m 14,6 km/h (3 Bft)
03.12.2014 02:38 0,7 C 0,0 C 88 % 1018,7 hPa 0,0 l/m 0 min 0 min 0 W/m 14,6 km/h (3 Bft)
03.12.2014 02:40 0,7 C 0,0 C 88 % 1018,6 hPa 0,0 l/m 0 min 0 min 0 W/m 18,8 km/h (3 Bft)
03.12.2014 02:42 0,7 C 0,0 C 88 % 1018,7 hPa 0,0 l/m 0 min 0 min 0 W/m 18,8 km/h (3 Bft)
03.12.2014 02:44 0,7 C 0,0 C 88 % 1018,7 hPa 0,0 l/m 0 min 0 min 0 W/m 16,7 km/h (3 Bft)
03.12.2014 02:46 0,7 C 0,0 C 88 % 1018,6 hPa 0,0 l/m 0 min 0 min 0 W/m 16,7 km/h (3 Bft)
03.12.2014 02:48 0,7 C 0,0 C 88 % 1018,7 hPa 0,0 l/m 0 min 0 min 0 W/m 16,7 km/h (3 Bft)
03.12.2014 02:50 0,7 C 0,0 C 88 % 1018,7 hPa 0,0 l/m 0 min 0 min 0 W/m 14,6 km/h (3 Bft)
03.12.2014 02:52 0,6 C 0,0 C 88 % 1018,7 hPa 0,0 l/m 0 min 0 min 0 W/m 23,0 km/h (4 Bft)
03.12.2014 02:54 0,6 C 0,0 C 88 % 1018,7 hPa 0,0 l/m 0 min 0 min 0 W/m 16,7 km/h (3 Bft)
03.12.2014 02:56 0,6 C 0,0 C 88 % 1018,8 hPa 0,0 l/m 0 min 0 min 0 W/m 16,7 km/h (3 Bft)
03.12.2014 02:58 0,6 C 0,0 C 88 % 1018,7 hPa 0,0 l/m 0 min 0 min 0 W/m 16,7 km/h (3 Bft)
03.12.2014 03:00 0,6 C 0,0 C 88 % 1018,8 hPa 0,0 l/m 0 min 0 min 0 W/m 20,9 km/h (4 Bft)
03.12.2014 03:02 0,6 C 0,0 C 88 % 1018,8 hPa 0,0 l/m 0 min 0 min 0 W/m 16,7 km/h (3 Bft)
03.12.2014 03:04 0,6 C 0,0 C 88 % 1018,8 hPa 0,0 l/m 0 min 0 min 0 W/m 18,8 km/h (3 Bft)
03.12.2014 03:06 0,6 C 0,0 C 88 % 1018,7 hPa 0,0 l/m 0 min 0 min 0 W/m 18,8 km/h (3 Bft)
03.12.2014 03:08 0,5 C 0,0 C 88 % 1018,7 hPa 0,0 l/m 0 min 0 min 0 W/m 12,6 km/h (3 Bft)
03.12.2014 03:10 0,6 C 0,0 C 88 % 1018,8 hPa 0,0 l/m 0 min 0 min 0 W/m 18,8 km/h (3 Bft)
03.12.2014 03:12 0,5 C 0,0 C 88 % 1018,8 hPa 0,0 l/m 0 min 0 min 0 W/m 18,8 km/h (3 Bft)
03.12.2014 03:14 0,5 C 0,0 C 88 % 1018,8 hPa 0,0 l/m 0 min 0 min 0 W/m 16,7 km/h (3 Bft)
03.12.2014 03:16 0,5 C 0,0 C 88 % 1018,8 hPa 0,0 l/m 0 min 0 min 0 W/m 16,7 km/h (3 Bft)
03.12.2014 03:18 0,5 C 0,0 C 88 % 1018,8 hPa 0,0 l/m 0 min 0 min 0 W/m 14,6 km/h (3 Bft)
03.12.2014 03:20 0,5 C 0,0 C 88 % 1018,9 hPa 0,0 l/m 0 min 0 min 0 W/m 14,6 km/h (3 Bft)
03.12.2014 03:22 0,5 C 0,0 C 88 % 1018,9 hPa 0,0 l/m 0 min 0 min 0 W/m 18,8 km/h (3 Bft)
03.12.2014 03:24 0,5 C 0,0 C 88 % 1018,9 hPa 0,0 l/m 0 min 0 min 0 W/m 16,7 km/h (3 Bft)
03.12.2014 03:26 0,5 C 0,0 C 88 % 1018,8 hPa 0,0 l/m 0 min 0 min 0 W/m 16,7 km/h (3 Bft)
03.12.2014 03:28 0,5 C 0,0 C 88 % 1018,8 hPa 0,0 l/m 0 min 0 min 0 W/m 14,6 km/h (3 Bft)
03.12.2014 03:30 0,5 C 0,0 C 88 % 1018,8 hPa 0,0 l/m 0 min 0 min 0 W/m 12,6 km/h (3 Bft)
03.12.2014 03:32 0,5 C 0,0 C 88 % 1018,8 hPa 0,0 l/m 0 min 0 min 0 W/m 14,6 km/h (3 Bft)
03.12.2014 03:34 0,5 C 0,0 C 88 % 1018,9 hPa 0,0 l/m 0 min 0 min 0 W/m 14,6 km/h (3 Bft)
03.12.2014 03:36 0,5 C 0,0 C 88 % 1018,9 hPa 0,0 l/m 0 min 0 min 0 W/m 12,6 km/h (3 Bft)
03.12.2014 03:38 0,5 C 0,0 C 88 % 1018,9 hPa 0,0 l/m 0 min 0 min 0 W/m 12,6 km/h (3 Bft)
03.12.2014 03:40 0,5 C 0,0 C 88 % 1018,9 hPa 0,0 l/m 0 min 0 min 0 W/m 23,0 km/h (4 Bft)
03.12.2014 03:42 0,5 C 0,0 C 88 % 1018,9 hPa 0,0 l/m 0 min 0 min 0 W/m 18,8 km/h (3 Bft)
03.12.2014 03:44 0,5 C 0,0 C 88 % 1019,0 hPa 0,0 l/m 0 min 0 min 0 W/m 18,8 km/h (3 Bft)
03.12.2014 03:46 0,5 C 0,0 C 88 % 1018,9 hPa 0,0 l/m 0 min 0 min 0 W/m 18,8 km/h (3 Bft)
03.12.2014 03:48 0,5 C 0,0 C 88 % 1018,9 hPa 0,0 l/m 0 min 0 min 0 W/m 20,9 km/h (4 Bft)
03.12.2014 03:50 0,5 C 0,0 C 88 % 1018,9 hPa 0,0 l/m 0 min 0 min 0 W/m 18,8 km/h (3 Bft)
03.12.2014 03:52 0,5 C 0,0 C 88 % 1018,9 hPa 0,0 l/m 0 min 0 min 0 W/m 16,7 km/h (3 Bft)
03.12.2014 03:54 0,5 C 0,0 C 88 % 1019,0 hPa 0,0 l/m 0 min 0 min 0 W/m 20,9 km/h (4 Bft)
03.12.2014 03:56 0,5 C 0,0 C 88 % 1019,1 hPa 0,0 l/m 0 min 0 min 0 W/m 18,8 km/h (3 Bft)
03.12.2014 03:58 0,5 C 0,0 C 88 % 1019,1 hPa 0,0 l/m 0 min 0 min 0 W/m 16,7 km/h (3 Bft)
03.12.2014 04:00 0,5 C 0,0 C 88 % 1019,1 hPa 0,0 l/m 0 min 0 min 0 W/m 16,7 km/h (3 Bft)
03.12.2014 04:05 0,5 C 0,0 C 88 % 1019,0 hPa 0,0 l/m 0 min 0 min 0 W/m 14,6 km/h (3 Bft)
03.12.2014 04:06 0,5 C 0,0 C 88 % 1019,0 hPa 0,0 l/m 0 min 0 min 0 W/m 12,6 km/h (3 Bft)
03.12.2014 04:08 0,5 C 0,0 C 88 % 1019,0 hPa 0,0 l/m 0 min 0 min 0 W/m 12,6 km/h (3 Bft)
03.12.2014 04:10 0,5 C 0,0 C 88 % 1019,1 hPa 0,0 l/m 0 min 0 min 0 W/m 14,6 km/h (3 Bft)
03.12.2014 04:12 0,5 C -0,6 C 88 % 1019,0 hPa 0,0 l/m 0 min 0 min 0 W/m 14,6 km/h (3 Bft)
03.12.2014 04:14 0,5 C -0,6 C 88 % 1019,0 hPa 0,0 l/m 0 min 0 min 0 W/m 16,7 km/h (3 Bft)
03.12.2014 04:16 0,5 C -0,6 C 88 % 1019,1 hPa 0,0 l/m 0 min 0 min 0 W/m 18,8 km/h (3 Bft)
03.12.2014 04:18 0,5 C -0,6 C 89 % 1019,0 hPa 0,0 l/m 0 min 0 min 0 W/m 18,8 km/h (3 Bft)
03.12.2014 04:20 0,5 C -0,6 C 89 % 1019,1 hPa 0,0 l/m 0 min 0 min 0 W/m 14,6 km/h (3 Bft)
03.12.2014 04:22 0,5 C -0,6 C 89 % 1019,1 hPa 0,0 l/m 0 min 0 min 0 W/m 10,5 km/h (2 Bft)
03.12.2014 04:24 0,5 C 0,0 C 89 % 1019,1 hPa 0,0 l/m 0 min 0 min 0 W/m 14,6 km/h (3 Bft)
03.12.2014 04:26 0,5 C 0,0 C 89 % 1019,2 hPa 0,0 l/m 0 min 0 min 0 W/m 14,6 km/h (3 Bft)
03.12.2014 04:28 0,4 C 0,0 C 89 % 1019,2 hPa 0,0 l/m 0 min 0 min 0 W/m 10,5 km/h (2 Bft)
03.12.2014 04:30 0,4 C 0,0 C 89 % 1019,2 hPa 0,0 l/m 0 min 0 min 0 W/m 12,6 km/h (3 Bft)
03.12.2014 04:32 0,4 C 0,0 C 89 % 1019,2 hPa 0,0 l/m 0 min 0 min 0 W/m 12,6 km/h (3 Bft)
03.12.2014 04:34 0,4 C 0,0 C 89 % 1019,2 hPa 0,0 l/m 0 min 0 min 0 W/m 14,6 km/h (3 Bft)
03.12.2014 04:36 0,4 C -0,6 C 89 % 1019,1 hPa 0,0 l/m 0 min 0 min 0 W/m 12,6 km/h (3 Bft)
03.12.2014 04:38 0,4 C -0,6 C 89 % 1019,1 hPa 0,0 l/m 0 min 0 min 0 W/m 18,8 km/h (3 Bft)
03.12.2014 04:40 0,4 C -0,6 C 89 % 1019,1 hPa 0,0 l/m 0 min 0 min 0 W/m 14,6 km/h (3 Bft)
03.12.2014 04:42 0,4 C 0,0 C 89 % 1019,1 hPa 0,0 l/m 0 min 0 min 0 W/m 14,6 km/h (3 Bft)
03.12.2014 04:44 0,4 C -0,6 C 89 % 1019,1 hPa 0,0 l/m 0 min 0 min 0 W/m 14,6 km/h (3 Bft)
03.12.2014 04:46 0,4 C -0,6 C 89 % 1019,2 hPa 0,0 l/m 0 min 0 min 0 W/m 16,7 km/h (3 Bft)
03.12.2014 04:48 0,4 C -0,6 C 89 % 1019,1 hPa 0,0 l/m 0 min 0 min 0 W/m 14,6 km/h (3 Bft)
03.12.2014 04:50 0,4 C -0,6 C 89 % 1019,2 hPa 0,0 l/m 0 min 0 min 0 W/m 16,7 km/h (3 Bft)
03.12.2014 04:52 0,4 C -0,6 C 89 % 1019,1 hPa 0,0 l/m 0 min 0 min 0 W/m 16,7 km/h (3 Bft)
03.12.2014 04:54 0,4 C -0,6 C 90 % 1019,1 hPa 0,0 l/m 0 min 0 min 0 W/m 16,7 km/h (3 Bft)
03.12.2014 04:56 0,4 C -0,6 C 90 % 1019,1 hPa 0,0 l/m 0 min 0 min 0 W/m 16,7 km/h (3 Bft)
03.12.2014 04:58 0,5 C -0,6 C 90 % 1019,1 hPa 0,0 l/m 0 min 0 min 0 W/m 16,7 km/h (3 Bft)
03.12.2014 05:00 0,4 C -0,6 C 90 % 1019,1 hPa 0,0 l/m 0 min 0 min 0 W/m 18,8 km/h (3 Bft)
03.12.2014 05:02 0,4 C -0,6 C 90 % 1019,2 hPa 0,0 l/m 0 min 0 min 0 W/m 20,9 km/h (4 Bft)
03.12.2014 05:04 0,4 C -0,6 C 90 % 1019,2 hPa 0,0 l/m 0 min 0 min 0 W/m 18,8 km/h (3 Bft)
03.12.2014 05:06 0,4 C -0,6 C 90 % 1019,2 hPa 0,0 l/m 0 min 0 min 0 W/m 16,7 km/h (3 Bft)
03.12.2014 05:08 0,4 C -0,6 C 90 % 1019,2 hPa 0,0 l/m 0 min 0 min 0 W/m 16,7 km/h (3 Bft)
03.12.2014 05:10 0,4 C -0,6 C 90 % 1019,2 hPa 0,0 l/m 0 min 0 min 0 W/m 20,9 km/h (4 Bft)
03.12.2014 05:12 0,3 C -0,6 C 90 % 1019,1 hPa 0,0 l/m 0 min 0 min 0 W/m 16,7 km/h (3 Bft)
03.12.2014 05:14 0,3 C -0,6 C 90 % 1019,2 hPa 0,0 l/m 0 min 0 min 0 W/m 18,8 km/h (3 Bft)
03.12.2014 05:16 0,3 C -0,6 C 91 % 1019,2 hPa 0,0 l/m 0 min 0 min 0 W/m 18,8 km/h (3 Bft)
03.12.2014 05:18 0,3 C -0,6 C 91 % 1019,2 hPa 0,0 l/m 0 min 0 min 0 W/m 16,7 km/h (3 Bft)
03.12.2014 05:20 0,3 C -0,6 C 91 % 1019,2 hPa 0,0 l/m 0 min 0 min 0 W/m 20,9 km/h (4 Bft)
03.12.2014 05:22 0,3 C -0,6 C 91 % 1019,1 hPa 0,0 l/m 0 min 0 min 0 W/m 20,9 km/h (4 Bft)
03.12.2014 05:24 0,3 C -0,6 C 91 % 1019,2 hPa 0,0 l/m 0 min 0 min 0 W/m 16,7 km/h (3 Bft)
03.12.2014 05:26 0,3 C -0,6 C 91 % 1019,1 hPa 0,0 l/m 0 min 0 min 0 W/m 14,6 km/h (3 Bft)
03.12.2014 05:28 0,3 C -0,6 C 91 % 1019,1 hPa 0,0 l/m 0 min 0 min 0 W/m 16,7 km/h (3 Bft)
03.12.2014 05:30 0,3 C -0,6 C 91 % 1019,1 hPa 0,0 l/m 0 min 0 min 0 W/m 10,5 km/h (2 Bft)
03.12.2014 05:32 0,3 C -0,6 C 91 % 1019,1 hPa 0,0 l/m 0 min 0 min 0 W/m 18,8 km/h (3 Bft)
03.12.2014 05:34 0,2 C -0,6 C 91 % 1019,1 hPa 0,0 l/m 0 min 0 min 0 W/m 16,7 km/h (3 Bft)
03.12.2014 05:36 0,2 C -0,6 C 92 % 1019,2 hPa 0,0 l/m 0 min 0 min 0 W/m 20,9 km/h (4 Bft)
03.12.2014 05:38 0,2 C -0,6 C 92 % 1019,2 hPa 0,0 l/m 0 min 0 min 0 W/m 18,8 km/h (3 Bft)
03.12.2014 05:40 0,2 C -0,6 C 92 % 1019,1 hPa 0,0 l/m 0 min 0 min 0 W/m 16,7 km/h (3 Bft)
03.12.2014 05:42 0,2 C -1,1 C 92 % 1019,1 hPa 0,0 l/m 0 min 0 min 0 W/m 16,7 km/h (3 Bft)
03.12.2014 05:44 0,2 C -1,1 C 92 % 1019,1 hPa 0,0 l/m 0 min 0 min 0 W/m 16,7 km/h (3 Bft)
03.12.2014 05:46 0,1 C -1,1 C 92 % 1019,1 hPa 0,0 l/m 0 min 0 min 0 W/m 14,6 km/h (3 Bft)
03.12.2014 05:48 0,1 C -1,1 C 92 % 1019,1 hPa 0,0 l/m 0 min 0 min 0 W/m 23,0 km/h (4 Bft)
03.12.2014 05:50 0,1 C -1,1 C 92 % 1019,2 hPa 0,0 l/m 0 min 0 min 0 W/m 20,9 km/h (4 Bft)
03.12.2014 05:52 0,1 C -1,1 C 92 % 1019,2 hPa 0,0 l/m 0 min 0 min 0 W/m 20,9 km/h (4 Bft)
03.12.2014 05:54 0,0 C -1,1 C 92 % 1019,2 hPa 0,0 l/m 0 min 0 min 0 W/m 16,7 km/h (3 Bft)
03.12.2014 05:56 0,0 C -1,1 C 92 % 1019,2 hPa 0,0 l/m 0 min 0 min 0 W/m 16,7 km/h (3 Bft)
03.12.2014 05:58 0,0 C -1,1 C 92 % 1019,2 hPa 0,0 l/m 0 min 0 min 0 W/m 12,6 km/h (3 Bft)
03.12.2014 06:00 0,0 C -0,6 C 92 % 1019,2 hPa 0,0 l/m 0 min 0 min 0 W/m 12,6 km/h (3 Bft)
03.12.2014 06:02 0,0 C -0,6 C 92 % 1019,2 hPa 0,0 l/m 0 min 0 min 0 W/m 16,7 km/h (3 Bft)
03.12.2014 06:05 -0,1 C -0,6 C 93 % 1019,2 hPa 0,0 l/m 0 min 0 min 0 W/m 14,6 km/h (3 Bft)
03.12.2014 06:08 -0,1 C -0,6 C 93 % 1019,2 hPa 0,0 l/m 0 min 0 min 0 W/m 16,7 km/h (3 Bft)
03.12.2014 06:10 -0,1 C -0,6 C 93 % 1019,2 hPa 0,0 l/m 0 min 0 min 0 W/m 16,7 km/h (3 Bft)
03.12.2014 06:12 -0,1 C -0,6 C 93 % 1019,2 hPa 0,0 l/m 0 min 0 min 0 W/m 10,5 km/h (2 Bft)
03.12.2014 06:14 -0,1 C -0,6 C 93 % 1019,2 hPa 0,0 l/m 0 min 0 min 0 W/m 12,6 km/h (3 Bft)
03.12.2014 06:16 -0,1 C -0,6 C 93 % 1019,2 hPa 0,0 l/m 0 min 0 min 0 W/m 18,8 km/h (3 Bft)
03.12.2014 06:18 -0,1 C -0,6 C 93 % 1019,2 hPa 0,0 l/m 0 min 0 min 0 W/m 18,8 km/h (3 Bft)
03.12.2014 06:20 -0,1 C -0,6 C 93 % 1019,2 hPa 0,0 l/m 0 min 0 min 0 W/m 16,7 km/h (3 Bft)
03.12.2014 06:22 -0,1 C -0,6 C 93 % 1019,2 hPa 0,0 l/m 0 min 0 min 0 W/m 12,6 km/h (3 Bft)
03.12.2014 06:24 -0,1 C -0,6 C 93 % 1019,2 hPa 0,0 l/m 0 min 0 min 0 W/m 12,6 km/h (3 Bft)
03.12.2014 06:26 -0,1 C -0,6 C 93 % 1019,2 hPa 0,0 l/m 0 min 0 min 0 W/m 12,6 km/h (3 Bft)
03.12.2014 06:28 -0,1 C -0,6 C 93 % 1019,3 hPa 0,0 l/m 0 min 0 min 0 W/m 12,6 km/h (3 Bft)
03.12.2014 06:30 -0,1 C -0,6 C 93 % 1019,3 hPa 0,0 l/m 0 min 0 min 0 W/m 12,6 km/h (3 Bft)
03.12.2014 06:32 -0,1 C -0,6 C 93 % 1019,3 hPa 0,0 l/m 0 min 0 min 0 W/m 14,6 km/h (3 Bft)
03.12.2014 06:34 -0,1 C -0,6 C 93 % 1019,2 hPa 0,0 l/m 0 min 0 min 0 W/m 12,6 km/h (3 Bft)
03.12.2014 06:36 -0,1 C -0,6 C 93 % 1019,3 hPa 0,0 l/m 0 min 0 min 0 W/m 18,8 km/h (3 Bft)
03.12.2014 06:38 -0,1 C -1,1 C 93 % 1019,3 hPa 0,0 l/m 0 min 0 min 0 W/m 16,7 km/h (3 Bft)
03.12.2014 06:40 -0,1 C -0,6 C 93 % 1019,3 hPa 0,0 l/m 0 min 0 min 0 W/m 10,5 km/h (2 Bft)
03.12.2014 06:42 -0,1 C -1,1 C 93 % 1019,3 hPa 0,0 l/m 0 min 0 min 0 W/m 12,6 km/h (3 Bft)
03.12.2014 06:44 -0,1 C -1,1 C 93 % 1019,4 hPa 0,0 l/m 0 min 0 min 0 W/m 14,6 km/h (3 Bft)
03.12.2014 06:46 -0,1 C -1,1 C 93 % 1019,4 hPa 0,0 l/m 0 min 0 min 0 W/m 12,6 km/h (3 Bft)
03.12.2014 06:48 -0,1 C -1,1 C 94 % 1019,4 hPa 0,0 l/m 0 min 0 min 0 W/m 12,6 km/h (3 Bft)
03.12.2014 06:50 -0,1 C -1,1 C 94 % 1019,4 hPa 0,0 l/m 0 min 0 min 0 W/m 18,8 km/h (3 Bft)
03.12.2014 06:52 -0,1 C -1,1 C 94 % 1019,5 hPa 0,0 l/m 0 min 2 min 0 W/m 16,7 km/h (3 Bft)
03.12.2014 06:54 -0,1 C -1,1 C 94 % 1019,5 hPa 0,0 l/m 0 min 0 min 0 W/m 16,7 km/h (3 Bft)
03.12.2014 06:56 -0,2 C -1,1 C 94 % 1019,5 hPa 0,0 l/m 0 min 0 min 0 W/m 14,6 km/h (3 Bft)
03.12.2014 06:58 -0,2 C -1,1 C 94 % 1019,5 hPa 0,0 l/m 0 min 0 min 0 W/m 16,7 km/h (3 Bft)
03.12.2014 07:00 -0,2 C -1,1 C 94 % 1019,6 hPa 0,0 l/m 0 min 0 min 0 W/m 16,7 km/h (3 Bft)
03.12.2014 07:02 -0,2 C -1,1 C 94 % 1019,6 hPa 0,0 l/m 0 min 0 min 0 W/m 14,6 km/h (3 Bft)
03.12.2014 07:04 -0,2 C -1,1 C 94 % 1019,6 hPa 0,0 l/m 0 min 2 min 0 W/m 16,7 km/h (3 Bft)
03.12.2014 07:06 -0,2 C -1,1 C 94 % 1019,6 hPa 0,0 l/m 0 min 2 min 0 W/m 14,6 km/h (3 Bft)
03.12.2014 07:08 -0,2 C -1,1 C 94 % 1019,5 hPa 0,0 l/m 0 min 2 min 0 W/m 14,6 km/h (3 Bft)
03.12.2014 07:10 -0,2 C -1,1 C 94 % 1019,6 hPa 0,0 l/m 0 min 2 min 0 W/m 12,6 km/h (3 Bft)
03.12.2014 07:12 -0,2 C -1,1 C 94 % 1019,6 hPa 0,0 l/m 0 min 0 min 0 W/m 14,6 km/h (3 Bft)
03.12.2014 07:14 -0,2 C -1,1 C 94 % 1019,6 hPa 0,0 l/m 0 min 0 min 0 W/m 12,6 km/h (3 Bft)
03.12.2014 07:16 -0,2 C -1,1 C 94 % 1019,6 hPa 0,0 l/m 0 min 0 min 0 W/m 10,5 km/h (2 Bft)
03.12.2014 07:18 -0,2 C -1,1 C 94 % 1019,7 hPa 0,0 l/m 0 min 0 min 0 W/m 14,6 km/h (3 Bft)
03.12.2014 07:20 -0,2 C -1,1 C 94 % 1019,7 hPa 0,0 l/m 0 min 0 min 0 W/m 12,6 km/h (3 Bft)
03.12.2014 07:22 -0,2 C -1,1 C 94 % 1019,7 hPa 0,0 l/m 0 min 0 min 0 W/m 14,6 km/h (3 Bft)
03.12.2014 07:24 -0,2 C -1,1 C 94 % 1019,7 hPa 0,0 l/m 0 min 0 min 0 W/m 8,4 km/h (2 Bft)
03.12.2014 07:26 -0,2 C -1,1 C 94 % 1019,7 hPa 0,0 l/m 0 min 0 min 0 W/m 10,5 km/h (2 Bft)
03.12.2014 07:28 -0,2 C -1,1 C 94 % 1019,7 hPa 0,0 l/m 0 min 0 min 0 W/m 16,7 km/h (3 Bft)
03.12.2014 07:30 -0,2 C -1,1 C 94 % 1019,7 hPa 0,0 l/m 0 min 0 min 0 W/m 14,6 km/h (3 Bft)
03.12.2014 07:32 -0,3 C -1,1 C 94 % 1019,6 hPa 0,0 l/m 0 min 0 min 0 W/m 16,7 km/h (3 Bft)
03.12.2014 07:34 -0,3 C -1,1 C 94 % 1019,7 hPa 0,0 l/m 0 min 0 min 0 W/m 14,6 km/h (3 Bft)
03.12.2014 07:36 -0,3 C -1,1 C 94 % 1019,7 hPa 0,0 l/m 0 min 0 min 0 W/m 14,6 km/h (3 Bft)
03.12.2014 07:38 -0,3 C -1,1 C 94 % 1019,7 hPa 0,0 l/m 0 min 0 min 0 W/m 12,6 km/h (3 Bft)
03.12.2014 07:40 -0,3 C -1,1 C 94 % 1019,7 hPa 0,0 l/m 0 min 0 min 0 W/m 16,7 km/h (3 Bft)
03.12.2014 07:42 -0,3 C -1,1 C 94 % 1019,8 hPa 0,0 l/m 0 min 0 min 0 W/m 14,6 km/h (3 Bft)
03.12.2014 07:44 -0,3 C -1,1 C 94 % 1019,8 hPa 0,0 l/m 0 min 0 min 0 W/m 14,6 km/h (3 Bft)
03.12.2014 07:46 -0,3 C -1,1 C 94 % 1019,8 hPa 0,0 l/m 0 min 0 min 0 W/m 14,6 km/h (3 Bft)
03.12.2014 07:48 -0,3 C -1,1 C 94 % 1019,8 hPa 0,0 l/m 0 min 0 min 0 W/m 14,6 km/h (3 Bft)
03.12.2014 07:50 -0,4 C -1,1 C 94 % 1019,8 hPa 0,0 l/m 0 min 0 min 0 W/m 16,7 km/h (3 Bft)
03.12.2014 07:52 -0,4 C -1,1 C 94 % 1019,8 hPa 0,0 l/m 0 min 0 min 0 W/m 18,8 km/h (3 Bft)
03.12.2014 07:54 -0,4 C -1,1 C 94 % 1019,8 hPa 0,0 l/m 0 min 0 min 0 W/m 16,7 km/h (3 Bft)
03.12.2014 07:56 -0,4 C -1,7 C 94 % 1019,9 hPa 0,0 l/m 0 min 0 min 0 W/m 14,6 km/h (3 Bft)
03.12.2014 07:58 -0,4 C -1,7 C 94 % 1019,9 hPa 0,0 l/m 0 min 0 min 0 W/m 12,6 km/h (3 Bft)
03.12.2014 08:00 -0,4 C -1,1 C 94 % 1019,9 hPa 0,0 l/m 0 min 0 min 0 W/m 18,8 km/h (3 Bft)
03.12.2014 08:02 -0,4 C -1,1 C 95 % 1019,9 hPa 0,0 l/m 0 min 0 min 0 W/m 18,8 km/h (3 Bft)
03.12.2014 08:04 -0,5 C -1,1 C 95 % 1020,0 hPa 0,0 l/m 0 min 0 min 0 W/m 18,8 km/h (3 Bft)
03.12.2014 08:06 -0,5 C -1,1 C 95 % 1020,0 hPa 0,0 l/m 0 min 0 min 0 W/m 18,8 km/h (3 Bft)
03.12.2014 08:08 -0,5 C -1,1 C 95 % 1019,9 hPa 0,0 l/m 0 min 0 min 0 W/m 18,8 km/h (3 Bft)
03.12.2014 08:10 -0,5 C -1,1 C 95 % 1020,0 hPa 0,0 l/m 0 min 0 min 0 W/m 16,7 km/h (3 Bft)
03.12.2014 08:12 -0,5 C -1,1 C 95 % 1020,1 hPa 0,0 l/m 0 min 0 min 0 W/m 12,6 km/h (3 Bft)
03.12.2014 08:14 -0,5 C -1,1 C 95 % 1020,1 hPa 0,0 l/m 0 min 0 min 0 W/m 14,6 km/h (3 Bft)
03.12.2014 08:16 -0,5 C -1,1 C 95 % 1020,1 hPa 0,0 l/m 0 min 0 min 0 W/m 18,8 km/h (3 Bft)
03.12.2014 08:18 -0,5 C -1,1 C 95 % 1020,1 hPa 0,0 l/m 0 min 0 min 0 W/m 20,9 km/h (4 Bft)
03.12.2014 08:20 -0,5 C -1,7 C 95 % 1020,1 hPa 0,0 l/m 0 min 0 min 0 W/m 20,9 km/h (4 Bft)
03.12.2014 08:22 -0,5 C -1,7 C 95 % 1020,1 hPa 0,0 l/m 0 min 0 min 0 W/m 23,0 km/h (4 Bft)
03.12.2014 08:24 -0,6 C -1,7 C 95 % 1020,2 hPa 0,0 l/m 0 min 0 min 0 W/m 16,7 km/h (3 Bft)
03.12.2014 08:26 -0,6 C -1,7 C 95 % 1020,2 hPa 0,0 l/m 0 min 0 min 0 W/m 20,9 km/h (4 Bft)
03.12.2014 08:28 -0,6 C -1,7 C 95 % 1020,3 hPa 0,0 l/m 0 min 0 min 0 W/m 16,7 km/h (3 Bft)
03.12.2014 08:30 -0,6 C -1,7 C 95 % 1020,3 hPa 0,0 l/m 0 min 0 min 0 W/m 20,9 km/h (4 Bft)
03.12.2014 08:32 -0,6 C -1,7 C 95 % 1020,3 hPa 0,0 l/m 0 min 0 min 0 W/m 18,8 km/h (3 Bft)
03.12.2014 08:34 -0,6 C -1,7 C 95 % 1020,3 hPa 0,0 l/m 0 min 0 min 0 W/m 16,7 km/h (3 Bft)
03.12.2014 08:36 -0,6 C -1,1 C 95 % 1020,4 hPa 0,0 l/m 0 min 0 min 0 W/m 12,6 km/h (3 Bft)
03.12.2014 08:38 -0,6 C -1,7 C 95 % 1020,3 hPa 0,0 l/m 0 min 0 min 0 W/m 23,0 km/h (4 Bft)
03.12.2014 08:40 -0,6 C -1,7 C 95 % 1020,3 hPa 0,0 l/m 0 min 0 min 0 W/m 18,8 km/h (3 Bft)
03.12.2014 08:42 -0,6 C -1,7 C 95 % 1020,3 hPa 0,0 l/m 0 min 0 min 0 W/m 18,8 km/h (3 Bft)
03.12.2014 08:44 -0,6 C -1,7 C 95 % 1020,4 hPa 0,0 l/m 0 min 0 min 0 W/m 14,6 km/h (3 Bft)
03.12.2014 08:46 -0,6 C -1,7 C 95 % 1020,5 hPa 0,0 l/m 0 min 0 min 0 W/m 18,8 km/h (3 Bft)
03.12.2014 08:48 -0,6 C -1,7 C 95 % 1020,4 hPa 0,0 l/m 0 min 0 min 0 W/m 18,8 km/h (3 Bft)
03.12.2014 08:50 -0,6 C -1,7 C 95 % 1020,4 hPa 0,0 l/m 0 min 0 min 0 W/m 18,8 km/h (3 Bft)
03.12.2014 08:52 -0,6 C -1,7 C 95 % 1020,4 hPa 0,0 l/m 0 min 0 min 0 W/m 14,6 km/h (3 Bft)
03.12.2014 08:54 -0,6 C -1,7 C 95 % 1020,5 hPa 0,0 l/m 0 min 0 min 0 W/m 18,8 km/h (3 Bft)
03.12.2014 08:56 -0,6 C -1,1 C 95 % 1020,5 hPa 0,0 l/m 0 min 0 min 0 W/m 14,6 km/h (3 Bft)
03.12.2014 08:58 -0,6 C -1,7 C 95 % 1020,5 hPa 0,0 l/m 0 min 0 min 0 W/m 20,9 km/h (4 Bft)
03.12.2014 09:00 -0,6 C -1,1 C 95 % 1020,5 hPa 0,0 l/m 0 min 0 min 0 W/m 20,9 km/h (4 Bft)
03.12.2014 09:02 -0,6 C -1,1 C 95 % 1020,5 hPa 0,0 l/m 0 min 0 min 0 W/m 18,8 km/h (3 Bft)
03.12.2014 09:04 -0,6 C -1,1 C 95 % 1020,4 hPa 0,0 l/m 0 min 0 min 0 W/m 16,7 km/h (3 Bft)
03.12.2014 09:06 -0,6 C -1,7 C 95 % 1020,5 hPa 0,0 l/m 0 min 0 min 0 W/m 16,7 km/h (3 Bft)
03.12.2014 09:08 -0,6 C -1,7 C 95 % 1020,5 hPa 0,0 l/m 0 min 0 min 0 W/m 18,8 km/h (3 Bft)
03.12.2014 09:10 -0,6 C -1,1 C 95 % 1020,5 hPa 0,0 l/m 0 min 0 min 0 W/m 16,7 km/h (3 Bft)
03.12.2014 09:12 -0,6 C -1,7 C 95 % 1020,5 hPa 0,0 l/m 0 min 0 min 0 W/m 10,5 km/h (2 Bft)
03.12.2014 09:14 -0,6 C -1,1 C 95 % 1020,6 hPa 0,0 l/m 0 min 0 min 0 W/m 18,8 km/h (3 Bft)
03.12.2014 09:16 -0,6 C -1,1 C 95 % 1020,6 hPa 0,0 l/m 0 min 0 min 0 W/m 16,7 km/h (3 Bft)
03.12.2014 09:18 -0,6 C -1,1 C 95 % 1020,6 hPa 0,0 l/m 0 min 0 min 0 W/m 16,7 km/h (3 Bft)
03.12.2014 09:20 -0,6 C -1,1 C 95 % 1020,7 hPa 0,0 l/m 0 min 0 min 0 W/m 18,8 km/h (3 Bft)
03.12.2014 09:22 -0,6 C -1,1 C 95 % 1020,7 hPa 0,0 l/m 0 min 0 min 0 W/m 18,8 km/h (3 Bft)
03.12.2014 09:24 -0,6 C -1,1 C 95 % 1020,7 hPa 0,0 l/m 0 min 0 min 0 W/m 16,7 km/h (3 Bft)
03.12.2014 09:26 -0,6 C -1,7 C 95 % 1020,7 hPa 0,0 l/m 0 min 0 min 0 W/m 20,9 km/h (4 Bft)
03.12.2014 09:28 -0,6 C -1,7 C 95 % 1020,7 hPa 0,0 l/m 0 min 0 min 0 W/m 20,9 km/h (4 Bft)
03.12.2014 09:30 -0,6 C -1,1 C 95 % 1020,7 hPa 0,0 l/m 0 min 0 min 0 W/m 18,8 km/h (3 Bft)
03.12.2014 09:32 -0,6 C -1,1 C 95 % 1020,8 hPa 0,0 l/m 0 min 0 min 0 W/m 20,9 km/h (4 Bft)
03.12.2014 09:34 -0,6 C -1,1 C 95 % 1020,7 hPa 0,0 l/m 0 min 0 min 0 W/m 18,8 km/h (3 Bft)
03.12.2014 09:36 -0,6 C -1,7 C 95 % 1020,8 hPa 0,0 l/m 0 min 0 min 0 W/m 14,6 km/h (3 Bft)
03.12.2014 09:38 -0,6 C -1,1 C 95 % 1020,8 hPa 0,0 l/m 0 min 0 min 0 W/m 23,0 km/h (4 Bft)
03.12.2014 09:40 -0,7 C -1,1 C 95 % 1020,8 hPa 0,0 l/m 0 min 0 min 1 W/m 23,0 km/h (4 Bft)
03.12.2014 09:42 -0,7 C -1,1 C 95 % 1020,8 hPa 0,0 l/m 0 min 0 min 5 W/m 23,0 km/h (4 Bft)
03.12.2014 09:44 -0,7 C -1,7 C 95 % 1020,9 hPa 0,0 l/m 0 min 0 min 5 W/m 23,0 km/h (4 Bft)
03.12.2014 09:46 -0,7 C -1,7 C 95 % 1020,9 hPa 0,0 l/m 0 min 0 min 7 W/m 23,0 km/h (4 Bft)
03.12.2014 09:48 -0,7 C -1,7 C 95 % 1020,9 hPa 0,0 l/m 0 min 0 min 8 W/m 23,0 km/h (4 Bft)
03.12.2014 09:50 -0,7 C -1,7 C 95 % 1020,9 hPa 0,0 l/m 0 min 0 min 11 W/m 23,0 km/h (4 Bft)
03.12.2014 09:52 -0,7 C -1,7 C 95 % 1020,9 hPa 0,0 l/m 0 min 0 min 11 W/m 20,9 km/h (4 Bft)
03.12.2014 09:54 -0,8 C -1,7 C 95 % 1020,8 hPa 0,0 l/m 0 min 0 min 11 W/m 18,8 km/h (3 Bft)
03.12.2014 09:56 -0,8 C -1,1 C 95 % 1020,8 hPa 0,0 l/m 0 min 0 min 11 W/m 18,8 km/h (3 Bft)
03.12.2014 09:58 -0,8 C -1,7 C 95 % 1020,9 hPa 0,0 l/m 0 min 0 min 10 W/m 14,6 km/h (3 Bft)
03.12.2014 10:00 -0,8 C -1,7 C 95 % 1021,0 hPa 0,0 l/m 0 min 0 min 9 W/m 16,7 km/h (3 Bft)
03.12.2014 10:02 -0,8 C -1,7 C 95 % 1021,0 hPa 0,0 l/m 0 min 0 min 7 W/m 20,9 km/h (4 Bft)
03.12.2014 10:04 -0,8 C -1,7 C 95 % 1021,0 hPa 0,0 l/m 0 min 0 min 7 W/m 14,6 km/h (3 Bft)
03.12.2014 10:06 -0,8 C -1,7 C 95 % 1021,0 hPa 0,0 l/m 0 min 0 min 7 W/m 18,8 km/h (3 Bft)
03.12.2014 10:08 -0,8 C -1,7 C 95 % 1021,0 hPa 0,0 l/m 0 min 0 min 6 W/m 18,8 km/h (3 Bft)
03.12.2014 10:10 -0,8 C -1,7 C 95 % 1021,0 hPa 0,0 l/m 0 min 0 min 6 W/m 18,8 km/h (3 Bft)
03.12.2014 10:12 -0,8 C -1,7 C 95 % 1021,1 hPa 0,0 l/m 0 min 0 min 7 W/m 16,7 km/h (3 Bft)
03.12.2014 10:14 -0,8 C -1,7 C 95 % 1021,1 hPa 0,0 l/m 0 min 0 min 7 W/m 18,8 km/h (3 Bft)
03.12.2014 10:16 -0,8 C -1,7 C 95 % 1021,1 hPa 0,0 l/m 0 min 0 min 7 W/m 18,8 km/h (3 Bft)
03.12.2014 10:18 -0,8 C -1,1 C 95 % 1021,1 hPa 0,0 l/m 0 min 0 min 8 W/m 12,6 km/h (3 Bft)
03.12.2014 10:20 -0,8 C -1,1 C 95 % 1021,1 hPa 0,0 l/m 0 min 0 min 12 W/m 14,6 km/h (3 Bft)
03.12.2014 10:22 -0,8 C -1,1 C 95 % 1021,1 hPa 0,0 l/m 0 min 0 min 14 W/m 18,8 km/h (3 Bft)
03.12.2014 10:24 -0,8 C -1,1 C 95 % 1021,1 hPa 0,0 l/m 0 min 0 min 16 W/m 14,6 km/h (3 Bft)
03.12.2014 10:26 -0,9 C -1,1 C 94 % 1021,1 hPa 0,0 l/m 0 min 0 min 22 W/m 16,7 km/h (3 Bft)
03.12.2014 10:28 -0,8 C -1,1 C 94 % 1021,1 hPa 0,0 l/m 0 min 0 min 25 W/m 12,6 km/h (3 Bft)
03.12.2014 10:30 -0,9 C -1,1 C 94 % 1021,2 hPa 0,0 l/m 0 min 0 min 25 W/m 14,6 km/h (3 Bft)
03.12.2014 10:32 -0,8 C -1,1 C 94 % 1021,2 hPa 0,0 l/m 0 min 0 min 23 W/m 18,8 km/h (3 Bft)
03.12.2014 10:34 -0,8 C -1,1 C 94 % 1021,2 hPa 0,0 l/m 0 min 0 min 22 W/m 16,7 km/h (3 Bft)
03.12.2014 10:36 -0,8 C -1,1 C 94 % 1021,2 hPa 0,0 l/m 0 min 0 min 25 W/m 16,7 km/h (3 Bft)
03.12.2014 10:38 -0,8 C -1,1 C 94 % 1021,2 hPa 0,0 l/m 0 min 0 min 21 W/m 14,6 km/h (3 Bft)
03.12.2014 10:40 -0,8 C -1,1 C 94 % 1021,2 hPa 0,0 l/m 0 min 0 min 15 W/m 18,8 km/h (3 Bft)
03.12.2014 10:42 -0,8 C -1,1 C 94 % 1021,2 hPa 0,0 l/m 0 min 0 min 12 W/m 18,8 km/h (3 Bft)
03.12.2014 10:44 -0,8 C -1,1 C 94 % 1021,3 hPa 0,0 l/m 0 min 0 min 13 W/m 14,6 km/h (3 Bft)
03.12.2014 10:46 -0,8 C -1,1 C 94 % 1021,2 hPa 0,0 l/m 0 min 0 min 12 W/m 14,6 km/h (3 Bft)
03.12.2014 10:48 -0,8 C -1,1 C 94 % 1021,2 hPa 0,0 l/m 0 min 0 min 11 W/m 14,6 km/h (3 Bft)
03.12.2014 10:50 -0,8 C -1,1 C 94 % 1021,2 hPa 0,0 l/m 0 min 0 min 10 W/m 10,5 km/h (2 Bft)
03.12.2014 10:52 -0,8 C -1,1 C 94 % 1021,2 hPa 0,0 l/m 0 min 0 min 7 W/m 14,6 km/h (3 Bft)
03.12.2014 10:54 -0,8 C -1,1 C 94 % 1021,2 hPa 0,0 l/m 0 min 0 min 7 W/m 14,6 km/h (3 Bft)
03.12.2014 10:56 -0,8 C -1,1 C 94 % 1021,2 hPa 0,0 l/m 0 min 0 min 8 W/m 14,6 km/h (3 Bft)
03.12.2014 10:58 -0,8 C -1,1 C 94 % 1021,2 hPa 0,0 l/m 0 min 0 min 9 W/m 14,6 km/h (3 Bft)
03.12.2014 11:00 -0,8 C -1,1 C 94 % 1021,3 hPa 0,0 l/m 0 min 0 min 9 W/m 18,8 km/h (3 Bft)
03.12.2014 11:02 -0,8 C -1,1 C 94 % 1021,3 hPa 0,0 l/m 0 min 0 min 11 W/m 16,7 km/h (3 Bft)
03.12.2014 11:04 -0,8 C -1,1 C 94 % 1021,3 hPa 0,0 l/m 0 min 0 min 12 W/m 16,7 km/h (3 Bft)
03.12.2014 11:06 -0,8 C -1,1 C 94 % 1021,2 hPa 0,0 l/m 0 min 0 min 12 W/m 18,8 km/h (3 Bft)
03.12.2014 11:08 -0,8 C -1,1 C 94 % 1021,2 hPa 0,0 l/m 0 min 0 min 12 W/m 14,6 km/h (3 Bft)
03.12.2014 11:10 -0,8 C -1,1 C 94 % 1021,2 hPa 0,0 l/m 0 min 0 min 12 W/m 12,6 km/h (3 Bft)
03.12.2014 11:12 -0,7 C -1,1 C 93 % 1021,2 hPa 0,0 l/m 0 min 0 min 12 W/m 16,7 km/h (3 Bft)
03.12.2014 11:14 -0,7 C -1,1 C 93 % 1021,2 hPa 0,0 l/m 0 min 0 min 12 W/m 14,6 km/h (3 Bft)
03.12.2014 11:16 -0,7 C -1,1 C 93 % 1021,3 hPa 0,0 l/m 0 min 0 min 17 W/m 16,7 km/h (3 Bft)
03.12.2014 11:18 -0,7 C -1,1 C 93 % 1021,3 hPa 0,0 l/m 0 min 0 min 25 W/m 16,7 km/h (3 Bft)
03.12.2014 11:20 -0,7 C -1,1 C 93 % 1021,2 hPa 0,0 l/m 0 min 0 min 26 W/m 14,6 km/h (3 Bft)
03.12.2014 11:22 -0,7 C -1,1 C 93 % 1021,2 hPa 0,0 l/m 0 min 0 min 26 W/m 14,6 km/h (3 Bft)
03.12.2014 11:24 -0,7 C -1,1 C 93 % 1021,2 hPa 0,0 l/m 0 min 0 min 28 W/m 18,8 km/h (3 Bft)
03.12.2014 11:26 -0,6 C -1,1 C 93 % 1021,2 hPa 0,0 l/m 0 min 0 min 26 W/m 18,8 km/h (3 Bft)
03.12.2014 11:28 -0,6 C -1,1 C 93 % 1021,2 hPa 0,0 l/m 0 min 0 min 21 W/m 16,7 km/h (3 Bft)
03.12.2014 11:30 -0,6 C -1,1 C 93 % 1021,1 hPa 0,0 l/m 0 min 0 min 19 W/m 16,7 km/h (3 Bft)
03.12.2014 11:32 -0,6 C -1,1 C 93 % 1021,1 hPa 0,0 l/m 0 min 0 min 20 W/m 16,7 km/h (3 Bft)
03.12.2014 11:34 -0,6 C -1,1 C 93 % 1021,1 hPa 0,0 l/m 0 min 0 min 23 W/m 14,6 km/h (3 Bft)
03.12.2014 11:36 -0,6 C -1,1 C 93 % 1021,1 hPa 0,0 l/m 0 min 0 min 20 W/m 12,6 km/h (3 Bft)
03.12.2014 11:38 -0,6 C -1,1 C 93 % 1021,0 hPa 0,0 l/m 0 min 0 min 17 W/m 16,7 km/h (3 Bft)
03.12.2014 11:40 -0,6 C -1,1 C 93 % 1021,0 hPa 0,0 l/m 0 min 0 min 20 W/m 14,6 km/h (3 Bft)
03.12.2014 11:42 -0,6 C -1,1 C 93 % 1021,0 hPa 0,0 l/m 0 min 0 min 25 W/m 12,6 km/h (3 Bft)
03.12.2014 11:44 -0,5 C -1,1 C 93 % 1021,0 hPa 0,0 l/m 0 min 0 min 30 W/m 14,6 km/h (3 Bft)
03.12.2014 11:46 -0,5 C -1,1 C 93 % 1021,0 hPa 0,0 l/m 0 min 0 min 30 W/m 12,6 km/h (3 Bft)
03.12.2014 11:48 -0,5 C -1,1 C 93 % 1021,0 hPa 0,0 l/m 0 min 0 min 27 W/m 16,7 km/h (3 Bft)
03.12.2014 11:50 -0,5 C -1,1 C 93 % 1021,0 hPa 0,0 l/m 0 min 0 min 23 W/m 14,6 km/h (3 Bft)
03.12.2014 11:52 -0,5 C -1,1 C 93 % 1021,0 hPa 0,0 l/m 0 min 0 min 23 W/m 20,9 km/h (4 Bft)
03.12.2014 11:54 -0,5 C -1,1 C 93 % 1021,0 hPa 0,0 l/m 0 min 0 min 22 W/m 16,7 km/h (3 Bft)
03.12.2014 11:56 -0,5 C -1,1 C 93 % 1021,0 hPa 0,0 l/m 0 min 0 min 20 W/m 12,6 km/h (3 Bft)
03.12.2014 11:58 -0,4 C -1,1 C 93 % 1021,1 hPa 0,0 l/m 0 min 0 min 19 W/m 18,8 km/h (3 Bft)
03.12.2014 12:00 -0,4 C -1,1 C 93 % 1021,0 hPa 0,0 l/m 0 min 0 min 18 W/m 14,6 km/h (3 Bft)
03.12.2014 12:02 -0,4 C -1,1 C 93 % 1021,0 hPa 0,0 l/m 0 min 0 min 17 W/m 16,7 km/h (3 Bft)
03.12.2014 12:05 -0,4 C -1,1 C 93 % 1021,1 hPa 0,0 l/m 0 min 0 min 15 W/m 16,7 km/h (3 Bft)
03.12.2014 12:06 -0,4 C -0,6 C 93 % 1021,1 hPa 0,0 l/m 0 min 0 min 14 W/m 18,8 km/h (3 Bft)
03.12.2014 12:08 -0,4 C -0,6 C 93 % 1021,0 hPa 0,0 l/m 0 min 0 min 16 W/m 20,9 km/h (4 Bft)
03.12.2014 12:10 -0,4 C -0,6 C 93 % 1021,1 hPa 0,0 l/m 0 min 0 min 18 W/m 18,8 km/h (3 Bft)
03.12.2014 12:12 -0,4 C -0,6 C 93 % 1021,1 hPa 0,0 l/m 0 min 0 min 19 W/m 20,9 km/h (4 Bft)
03.12.2014 12:14 -0,4 C -0,6 C 93 % 1021,1 hPa 0,0 l/m 0 min 0 min 19 W/m 20,9 km/h (4 Bft)
03.12.2014 12:16 -0,4 C -0,6 C 93 % 1021,1 hPa 0,0 l/m 0 min 0 min 21 W/m 20,9 km/h (4 Bft)
03.12.2014 12:18 -0,4 C -0,6 C 93 % 1021,1 hPa 0,0 l/m 0 min 0 min 21 W/m 14,6 km/h (3 Bft)
03.12.2014 12:20 -0,4 C -0,6 C 93 % 1021,0 hPa 0,0 l/m 0 min 0 min 19 W/m 10,5 km/h (2 Bft)
03.12.2014 12:22 -0,4 C -0,6 C 92 % 1021,1 hPa 0,0 l/m 0 min 0 min 17 W/m 18,8 km/h (3 Bft)
03.12.2014 12:24 -0,3 C -0,6 C 92 % 1021,0 hPa 0,0 l/m 0 min 0 min 16 W/m 16,7 km/h (3 Bft)
03.12.2014 12:26 -0,4 C -1,1 C 92 % 1021,1 hPa 0,0 l/m 0 min 0 min 17 W/m 14,6 km/h (3 Bft)
03.12.2014 12:28 -0,4 C -1,1 C 92 % 1021,1 hPa 0,0 l/m 0 min 0 min 17 W/m 18,8 km/h (3 Bft)
03.12.2014 12:30 -0,4 C -1,1 C 92 % 1021,0 hPa 0,0 l/m 0 min 0 min 18 W/m 14,6 km/h (3 Bft)
03.12.2014 12:32 -0,4 C -0,6 C 92 % 1021,0 hPa 0,0 l/m 0 min 0 min 21 W/m 14,6 km/h (3 Bft)
03.12.2014 12:34 -0,3 C -0,6 C 92 % 1021,0 hPa 0,0 l/m 0 min 0 min 25 W/m 14,6 km/h (3 Bft)
03.12.2014 12:36 -0,3 C -0,6 C 92 % 1021,0 hPa 0,0 l/m 0 min 0 min 27 W/m 14,6 km/h (3 Bft)
03.12.2014 12:38 -0,3 C -0,6 C 92 % 1021,0 hPa 0,0 l/m 0 min 0 min 24 W/m 14,6 km/h (3 Bft)
03.12.2014 12:40 -0,3 C -0,6 C 92 % 1021,0 hPa 0,0 l/m 0 min 0 min 22 W/m 18,8 km/h (3 Bft)
03.12.2014 12:42 -0,3 C -0,6 C 92 % 1021,0 hPa 0,0 l/m 0 min 0 min 22 W/m 14,6 km/h (3 Bft)
03.12.2014 12:44 -0,3 C -0,6 C 92 % 1021,0 hPa 0,0 l/m 0 min 0 min 24 W/m 16,7 km/h (3 Bft)
03.12.2014 12:46 -0,3 C -0,6 C 92 % 1021,0 hPa 0,0 l/m 0 min 0 min 25 W/m 18,8 km/h (3 Bft)
03.12.2014 12:48 -0,3 C -0,6 C 92 % 1021,0 hPa 0,0 l/m 0 min 0 min 25 W/m 18,8 km/h (3 Bft)
03.12.2014 12:50 -0,3 C -1,1 C 92 % 1021,0 hPa 0,0 l/m 0 min 0 min 26 W/m 16,7 km/h (3 Bft)
03.12.2014 12:52 -0,3 C -0,6 C 92 % 1021,0 hPa 0,0 l/m 0 min 0 min 28 W/m 14,6 km/h (3 Bft)
03.12.2014 12:54 -0,3 C -0,6 C 92 % 1021,0 hPa 0,0 l/m 0 min 0 min 30 W/m 16,7 km/h (3 Bft)
03.12.2014 12:56 -0,3 C -0,6 C 92 % 1021,0 hPa 0,0 l/m 0 min 0 min 34 W/m 14,6 km/h (3 Bft)
03.12.2014 12:58 -0,3 C -0,6 C 92 % 1020,9 hPa 0,0 l/m 0 min 0 min 35 W/m 18,8 km/h (3 Bft)
03.12.2014 13:00 -0,3 C -0,6 C 92 % 1021,0 hPa 0,0 l/m 0 min 0 min 34 W/m 18,8 km/h (3 Bft)
03.12.2014 13:02 -0,3 C -0,6 C 92 % 1021,0 hPa 0,0 l/m 0 min 0 min 33 W/m 12,6 km/h (3 Bft)
03.12.2014 13:04 -0,2 C -0,6 C 92 % 1021,0 hPa 0,0 l/m 0 min 0 min 31 W/m 14,6 km/h (3 Bft)
03.12.2014 13:06 -0,2 C -0,6 C 92 % 1021,0 hPa 0,0 l/m 0 min 0 min 30 W/m 18,8 km/h (3 Bft)
03.12.2014 13:08 -0,2 C -0,6 C 92 % 1020,9 hPa 0,0 l/m 0 min 0 min 28 W/m 14,6 km/h (3 Bft)
03.12.2014 13:10 -0,2 C -0,6 C 92 % 1020,9 hPa 0,0 l/m 0 min 0 min 28 W/m 12,6 km/h (3 Bft)
03.12.2014 13:12 -0,2 C -0,6 C 92 % 1021,0 hPa 0,0 l/m 0 min 0 min 28 W/m 14,6 km/h (3 Bft)
03.12.2014 13:14 -0,2 C -0,6 C 92 % 1020,9 hPa 0,0 l/m 0 min 0 min 29 W/m 16,7 km/h (3 Bft)
03.12.2014 13:16 -0,2 C -0,6 C 92 % 1020,9 hPa 0,0 l/m 0 min 0 min 30 W/m 18,8 km/h (3 Bft)
03.12.2014 13:18 -0,2 C -0,6 C 92 % 1020,9 hPa 0,0 l/m 0 min 0 min 29 W/m 18,8 km/h (3 Bft)
03.12.2014 13:20 -0,2 C -0,6 C 92 % 1021,0 hPa 0,0 l/m 0 min 0 min 30 W/m 10,5 km/h (2 Bft)
03.12.2014 13:22 -0,2 C -0,6 C 92 % 1020,9 hPa 0,0 l/m 0 min 0 min 32 W/m 18,8 km/h (3 Bft)
03.12.2014 13:24 -0,2 C -0,6 C 92 % 1020,9 hPa 0,0 l/m 0 min 0 min 33 W/m 12,6 km/h (3 Bft)
03.12.2014 13:26 -0,2 C -0,6 C 92 % 1020,9 hPa 0,0 l/m 0 min 0 min 30 W/m 18,8 km/h (3 Bft)
03.12.2014 13:28 -0,2 C -0,6 C 92 % 1020,9 hPa 0,0 l/m 0 min 0 min 25 W/m 16,7 km/h (3 Bft)
03.12.2014 13:30 -0,2 C -0,6 C 92 % 1020,8 hPa 0,0 l/m 0 min 0 min 25 W/m 16,7 km/h (3 Bft)
03.12.2014 13:32 -0,1 C -0,6 C 92 % 1020,8 hPa 0,0 l/m 0 min 0 min 26 W/m 18,8 km/h (3 Bft)
03.12.2014 13:34 -0,1 C -0,6 C 92 % 1020,9 hPa 0,0 l/m 0 min 0 min 27 W/m 12,6 km/h (3 Bft)
03.12.2014 13:36 -0,2 C -0,6 C 92 % 1020,8 hPa 0,0 l/m 0 min 0 min 26 W/m 18,8 km/h (3 Bft)
03.12.2014 13:38 -0,2 C -0,6 C 92 % 1020,9 hPa 0,0 l/m 0 min 0 min 25 W/m 14,6 km/h (3 Bft)
03.12.2014 13:40 -0,2 C -0,6 C 92 % 1020,9 hPa 0,0 l/m 0 min 0 min 24 W/m 18,8 km/h (3 Bft)
03.12.2014 13:42 -0,2 C -0,6 C 92 % 1020,8 hPa 0,0 l/m 0 min 0 min 25 W/m 12,6 km/h (3 Bft)
03.12.2014 13:44 -0,2 C -0,6 C 92 % 1020,8 hPa 0,0 l/m 0 min 0 min 25 W/m 20,9 km/h (4 Bft)
03.12.2014 13:46 -0,2 C -0,6 C 92 % 1020,8 hPa 0,0 l/m 0 min 0 min 26 W/m 16,7 km/h (3 Bft)
03.12.2014 13:48 -0,2 C -0,6 C 91 % 1020,9 hPa 0,0 l/m 0 min 0 min 25 W/m 18,8 km/h (3 Bft)
03.12.2014 13:50 -0,2 C -0,6 C 91 % 1020,9 hPa 0,0 l/m 0 min 0 min 25 W/m 20,9 km/h (4 Bft)
03.12.2014 13:52 -0,2 C -0,6 C 91 % 1020,8 hPa 0,0 l/m 0 min 0 min 24 W/m 20,9 km/h (4 Bft)
03.12.2014 13:54 -0,2 C -0,6 C 91 % 1020,8 hPa 0,0 l/m 0 min 0 min 24 W/m 18,8 km/h (3 Bft)
03.12.2014 13:56 -0,2 C -0,6 C 91 % 1020,8 hPa 0,0 l/m 0 min 0 min 23 W/m 18,8 km/h (3 Bft)
03.12.2014 13:58 -0,2 C -0,6 C 91 % 1020,8 hPa 0,0 l/m 0 min 0 min 25 W/m 16,7 km/h (3 Bft)
03.12.2014 14:00 -0,2 C -0,6 C 91 % 1020,7 hPa 0,0 l/m 0 min 0 min 25 W/m 18,8 km/h (3 Bft)
03.12.2014 14:02 -0,2 C -0,6 C 91 % 1020,7 hPa 0,0 l/m 0 min 0 min 25 W/m 12,6 km/h (3 Bft)
03.12.2014 14:04 -0,2 C -0,6 C 91 % 1020,7 hPa 0,0 l/m 0 min 0 min 25 W/m 16,7 km/h (3 Bft)
03.12.2014 14:06 -0,2 C -0,6 C 91 % 1020,7 hPa 0,0 l/m 0 min 0 min 25 W/m 16,7 km/h (3 Bft)
03.12.2014 14:08 -0,2 C -0,6 C 91 % 1020,7 hPa 0,0 l/m 0 min 0 min 25 W/m 18,8 km/h (3 Bft)
03.12.2014 14:10 -0,2 C -0,6 C 91 % 1020,8 hPa 0,0 l/m 0 min 0 min 26 W/m 16,7 km/h (3 Bft)
03.12.2014 14:12 -0,2 C -0,6 C 91 % 1020,7 hPa 0,0 l/m 0 min 0 min 26 W/m 16,7 km/h (3 Bft)
03.12.2014 14:14 -0,3 C -0,6 C 91 % 1020,7 hPa 0,0 l/m 0 min 0 min 28 W/m 18,8 km/h (3 Bft)
03.12.2014 14:16 -0,3 C -0,6 C 91 % 1020,6 hPa 0,0 l/m 0 min 0 min 32 W/m 18,8 km/h (3 Bft)
03.12.2014 14:18 -0,2 C -0,6 C 91 % 1020,6 hPa 0,0 l/m 0 min 0 min 31 W/m 23,0 km/h (4 Bft)
03.12.2014 14:20 -0,2 C -0,6 C 91 % 1020,6 hPa 0,0 l/m 0 min 0 min 29 W/m 18,8 km/h (3 Bft)
03.12.2014 14:22 -0,2 C -0,6 C 91 % 1020,7 hPa 0,0 l/m 0 min 0 min 30 W/m 23,0 km/h (4 Bft)
03.12.2014 14:24 -0,2 C -0,6 C 91 % 1020,7 hPa 0,0 l/m 0 min 0 min 30 W/m 20,9 km/h (4 Bft)
03.12.2014 14:26 -0,2 C -0,6 C 91 % 1020,7 hPa 0,0 l/m 0 min 0 min 28 W/m 23,0 km/h (4 Bft)
03.12.2014 14:28 -0,3 C -0,6 C 91 % 1020,7 hPa 0,0 l/m 0 min 0 min 26 W/m 14,6 km/h (3 Bft)
03.12.2014 14:30 -0,2 C -0,6 C 91 % 1020,6 hPa 0,0 l/m 0 min 0 min 25 W/m 16,7 km/h (3 Bft)
03.12.2014 14:32 -0,3 C -0,6 C 91 % 1020,6 hPa 0,0 l/m 0 min 0 min 24 W/m 14,6 km/h (3 Bft)
03.12.2014 14:34 -0,2 C -0,6 C 91 % 1020,6 hPa 0,0 l/m 0 min 0 min 22 W/m 16,7 km/h (3 Bft)
03.12.2014 14:36 -0,3 C -0,6 C 91 % 1020,6 hPa 0,0 l/m 0 min 0 min 21 W/m 20,9 km/h (4 Bft)
03.12.2014 14:38 -0,2 C -0,6 C 91 % 1020,7 hPa 0,0 l/m 0 min 0 min 21 W/m 16,7 km/h (3 Bft)
03.12.2014 14:40 -0,2 C -0,6 C 91 % 1020,7 hPa 0,0 l/m 0 min 0 min 21 W/m 14,6 km/h (3 Bft)
03.12.2014 14:42 -0,2 C -0,6 C 91 % 1020,7 hPa 0,0 l/m 0 min 0 min 21 W/m 16,7 km/h (3 Bft)
03.12.2014 14:44 -0,2 C -0,6 C 91 % 1020,6 hPa 0,0 l/m 0 min 0 min 21 W/m 18,8 km/h (3 Bft)
03.12.2014 14:46 -0,2 C -0,6 C 91 % 1020,6 hPa 0,0 l/m 0 min 0 min 21 W/m 18,8 km/h (3 Bft)
03.12.2014 14:48 -0,3 C -0,6 C 91 % 1020,6 hPa 0,0 l/m 0 min 0 min 21 W/m 16,7 km/h (3 Bft)
03.12.2014 14:50 -0,3 C -1,1 C 91 % 1020,5 hPa 0,0 l/m 0 min 0 min 22 W/m 16,7 km/h (3 Bft)
03.12.2014 14:52 -0,3 C -1,1 C 91 % 1020,6 hPa 0,0 l/m 0 min 0 min 23 W/m 12,6 km/h (3 Bft)
03.12.2014 14:54 -0,3 C -0,6 C 91 % 1020,6 hPa 0,0 l/m 0 min 0 min 26 W/m 14,6 km/h (3 Bft)
03.12.2014 14:56 -0,3 C -0,6 C 91 % 1020,6 hPa 0,0 l/m 0 min 0 min 26 W/m 20,9 km/h (4 Bft)
03.12.2014 14:58 -0,3 C -0,6 C 91 % 1020,7 hPa 0,0 l/m 0 min 0 min 26 W/m 18,8 km/h (3 Bft)
03.12.2014 15:00 -0,3 C -0,6 C 91 % 1020,6 hPa 0,0 l/m 0 min 0 min 26 W/m 14,6 km/h (3 Bft)
03.12.2014 15:02 -0,3 C -0,6 C 91 % 1020,7 hPa 0,0 l/m 0 min 0 min 27 W/m 20,9 km/h (4 Bft)
03.12.2014 15:04 -0,3 C -0,6 C 90 % 1020,6 hPa 0,0 l/m 0 min 0 min 26 W/m 18,8 km/h (3 Bft)
03.12.2014 15:06 -0,3 C -0,6 C 90 % 1020,6 hPa 0,0 l/m 0 min 0 min 24 W/m 20,9 km/h (4 Bft)
03.12.2014 15:08 -0,3 C -0,6 C 90 % 1020,6 hPa 0,0 l/m 0 min 0 min 22 W/m 18,8 km/h (3 Bft)
03.12.2014 15:10 -0,3 C -1,1 C 90 % 1020,6 hPa 0,0 l/m 0 min 0 min 21 W/m 18,8 km/h (3 Bft)
03.12.2014 15:12 -0,4 C -1,1 C 90 % 1020,7 hPa 0,0 l/m 0 min 0 min 20 W/m 18,8 km/h (3 Bft)
03.12.2014 15:14 -0,4 C -1,1 C 90 % 1020,7 hPa 0,0 l/m 0 min 0 min 18 W/m 12,6 km/h (3 Bft)
03.12.2014 15:16 -0,4 C -1,1 C 90 % 1020,7 hPa 0,0 l/m 0 min 0 min 18 W/m 18,8 km/h (3 Bft)
03.12.2014 15:18 -0,4 C -1,1 C 90 % 1020,6 hPa 0,0 l/m 0 min 0 min 18 W/m 25,1 km/h (4 Bft)
03.12.2014 15:20 -0,4 C -1,1 C 90 % 1020,6 hPa 0,0 l/m 0 min 0 min 16 W/m 18,8 km/h (3 Bft)
03.12.2014 15:22 -0,5 C -1,1 C 90 % 1020,6 hPa 0,0 l/m 0 min 0 min 16 W/m 25,1 km/h (4 Bft)
03.12.2014 15:24 -0,5 C -1,1 C 90 % 1020,6 hPa 0,0 l/m 0 min 0 min 15 W/m 18,8 km/h (3 Bft)
03.12.2014 15:26 -0,5 C -1,1 C 90 % 1020,6 hPa 0,0 l/m 0 min 0 min 16 W/m 12,6 km/h (3 Bft)
03.12.2014 15:28 -0,5 C -1,1 C 90 % 1020,5 hPa 0,0 l/m 0 min 0 min 14 W/m 10,5 km/h (2 Bft)
03.12.2014 15:30 -0,5 C -1,1 C 90 % 1020,5 hPa 0,0 l/m 0 min 0 min 14 W/m 14,6 km/h (3 Bft)
03.12.2014 15:32 -0,5 C -1,1 C 90 % 1020,5 hPa 0,0 l/m 0 min 0 min 14 W/m 20,9 km/h (4 Bft)
03.12.2014 15:34 -0,5 C -1,1 C 90 % 1020,4 hPa 0,0 l/m 0 min 0 min 14 W/m 20,9 km/h (4 Bft)
03.12.2014 15:36 -0,5 C -1,1 C 90 % 1020,4 hPa 0,0 l/m 0 min 0 min 14 W/m 20,9 km/h (4 Bft)
03.12.2014 15:38 -0,5 C -1,1 C 90 % 1020,4 hPa 0,0 l/m 0 min 0 min 12 W/m 16,7 km/h (3 Bft)
03.12.2014 15:40 -0,5 C -1,1 C 90 % 1020,5 hPa 0,0 l/m 0 min 0 min 12 W/m 16,7 km/h (3 Bft)
03.12.2014 15:42 -0,5 C -1,1 C 90 % 1020,5 hPa 0,0 l/m 0 min 0 min 11 W/m 14,6 km/h (3 Bft)
03.12.2014 15:44 -0,5 C -1,1 C 90 % 1020,5 hPa 0,0 l/m 0 min 0 min 11 W/m 16,7 km/h (3 Bft)
03.12.2014 15:46 -0,6 C -1,1 C 90 % 1020,5 hPa 0,0 l/m 0 min 0 min 9 W/m 16,7 km/h (3 Bft)
03.12.2014 15:48 -0,6 C -1,1 C 90 % 1020,5 hPa 0,0 l/m 0 min 0 min 9 W/m 12,6 km/h (3 Bft)
03.12.2014 15:50 -0,6 C -1,1 C 90 % 1020,6 hPa 0,0 l/m 0 min 0 min 9 W/m 16,7 km/h (3 Bft)
03.12.2014 15:52 -0,6 C -1,1 C 90 % 1020,6 hPa 0,0 l/m 0 min 0 min 9 W/m 16,7 km/h (3 Bft)
03.12.2014 15:54 -0,6 C -1,1 C 90 % 1020,5 hPa 0,0 l/m 0 min 0 min 9 W/m 20,9 km/h (4 Bft)
03.12.2014 15:56 -0,6 C -1,1 C 90 % 1020,6 hPa 0,0 l/m 0 min 0 min 8 W/m 14,6 km/h (3 Bft)
03.12.2014 15:58 -0,6 C -1,1 C 90 % 1020,6 hPa 0,0 l/m 0 min 0 min 9 W/m 12,6 km/h (3 Bft)
03.12.2014 16:00 -0,6 C -1,1 C 90 % 1020,6 hPa 0,0 l/m 0 min 0 min 8 W/m 16,7 km/h (3 Bft)
03.12.2014 16:02 -0,6 C -1,1 C 90 % 1020,5 hPa 0,0 l/m 0 min 0 min 7 W/m 20,9 km/h (4 Bft)
03.12.2014 16:04 -0,6 C -1,1 C 90 % 1020,6 hPa 0,0 l/m 0 min 0 min 7 W/m 18,8 km/h (3 Bft)
03.12.2014 16:06 -0,6 C -1,1 C 90 % 1020,6 hPa 0,0 l/m 0 min 0 min 7 W/m 16,7 km/h (3 Bft)
03.12.2014 16:08 -0,6 C -1,1 C 90 % 1020,6 hPa 0,0 l/m 0 min 0 min 7 W/m 18,8 km/h (3 Bft)
03.12.2014 16:10 -0,6 C -1,1 C 90 % 1020,6 hPa 0,0 l/m 0 min 0 min 6 W/m 16,7 km/h (3 Bft)
03.12.2014 16:12 -0,6 C -1,1 C 90 % 1020,6 hPa 0,0 l/m 0 min 0 min 5 W/m 16,7 km/h (3 Bft)
03.12.2014 16:14 -0,7 C -1,1 C 90 % 1020,6 hPa 0,0 l/m 0 min 0 min 5 W/m 23,0 km/h (4 Bft)
03.12.2014 16:16 -0,7 C -1,7 C 90 % 1020,6 hPa 0,0 l/m 0 min 0 min 2 W/m 25,1 km/h (4 Bft)
03.12.2014 16:18 -0,7 C -1,7 C 90 % 1020,6 hPa 0,0 l/m 0 min 0 min 0 W/m 27,2 km/h (4 Bft)
03.12.2014 16:20 -0,7 C -1,7 C 90 % 1020,6 hPa 0,0 l/m 0 min 0 min 0 W/m 23,0 km/h (4 Bft)
03.12.2014 16:22 -0,7 C -1,7 C 90 % 1020,7 hPa 0,0 l/m 0 min 0 min 0 W/m 23,0 km/h (4 Bft)
03.12.2014 16:24 -0,8 C -1,7 C 90 % 1020,6 hPa 0,0 l/m 0 min 0 min 0 W/m 18,8 km/h (3 Bft)
03.12.2014 16:26 -0,8 C -1,7 C 90 % 1020,7 hPa 0,0 l/m 0 min 0 min 0 W/m 20,9 km/h (4 Bft)
03.12.2014 16:28 -0,8 C -1,7 C 90 % 1020,7 hPa 0,0 l/m 0 min 0 min 0 W/m 18,8 km/h (3 Bft)
03.12.2014 16:30 -0,8 C -1,7 C 90 % 1020,7 hPa 0,0 l/m 0 min 0 min 0 W/m 20,9 km/h (4 Bft)
03.12.2014 16:32 -0,8 C -1,7 C 90 % 1020,7 hPa 0,0 l/m 0 min 0 min 0 W/m 18,8 km/h (3 Bft)
03.12.2014 16:34 -0,8 C -1,7 C 90 % 1020,6 hPa 0,0 l/m 0 min 0 min 0 W/m 16,7 km/h (3 Bft)
03.12.2014 16:36 -0,8 C -1,7 C 90 % 1020,7 hPa 0,0 l/m 0 min 0 min 0 W/m 27,2 km/h (4 Bft)
03.12.2014 16:38 -0,8 C -1,7 C 90 % 1020,6 hPa 0,0 l/m 0 min 0 min 0 W/m 18,8 km/h (3 Bft)
03.12.2014 16:40 -0,8 C -1,7 C 90 % 1020,7 hPa 0,0 l/m 0 min 0 min 0 W/m 20,9 km/h (4 Bft)
03.12.2014 16:42 -0,8 C -1,7 C 90 % 1020,7 hPa 0,0 l/m 0 min 0 min 0 W/m 20,9 km/h (4 Bft)
03.12.2014 16:44 -0,9 C -1,7 C 90 % 1020,7 hPa 0,0 l/m 0 min 0 min 0 W/m 20,9 km/h (4 Bft)
03.12.2014 16:46 -0,9 C -1,7 C 90 % 1020,7 hPa 0,0 l/m 0 min 0 min 0 W/m 18,8 km/h (3 Bft)
03.12.2014 16:48 -0,9 C -1,7 C 90 % 1020,7 hPa 0,0 l/m 0 min 0 min 0 W/m 18,8 km/h (3 Bft)
03.12.2014 16:50 -0,9 C -1,7 C 90 % 1020,7 hPa 0,0 l/m 0 min 0 min 0 W/m 12,6 km/h (3 Bft)
03.12.2014 16:52 -0,9 C -1,7 C 90 % 1020,7 hPa 0,0 l/m 0 min 0 min 0 W/m 16,7 km/h (3 Bft)
03.12.2014 16:54 -0,9 C -1,7 C 90 % 1020,7 hPa 0,0 l/m 0 min 0 min 0 W/m 27,2 km/h (4 Bft)
03.12.2014 16:56 -0,9 C -1,7 C 90 % 1020,7 hPa 0,0 l/m 0 min 0 min 0 W/m 18,8 km/h (3 Bft)
03.12.2014 16:58 -0,9 C -1,7 C 90 % 1020,8 hPa 0,0 l/m 0 min 0 min 0 W/m 20,9 km/h (4 Bft)
03.12.2014 17:00 -0,9 C -1,7 C 90 % 1020,7 hPa 0,0 l/m 0 min 0 min 0 W/m 20,9 km/h (4 Bft)
03.12.2014 17:02 -0,9 C -1,7 C 90 % 1020,7 hPa 0,0 l/m 0 min 0 min 0 W/m 14,6 km/h (3 Bft)
03.12.2014 17:04 -0,9 C -1,7 C 90 % 1020,8 hPa 0,0 l/m 0 min 0 min 0 W/m 14,6 km/h (3 Bft)
03.12.2014 17:06 -0,9 C -1,7 C 90 % 1020,7 hPa 0,0 l/m 0 min 0 min 0 W/m 14,6 km/h (3 Bft)
03.12.2014 17:08 -0,9 C -1,7 C 90 % 1020,7 hPa 0,0 l/m 0 min 0 min 0 W/m 14,6 km/h (3 Bft)
03.12.2014 17:10 -0,9 C -1,7 C 90 % 1020,7 hPa 0,0 l/m 0 min 0 min 0 W/m 16,7 km/h (3 Bft)
03.12.2014 17:12 -0,9 C -1,7 C 90 % 1020,8 hPa 0,0 l/m 0 min 0 min 0 W/m 20,9 km/h (4 Bft)
03.12.2014 17:14 -0,9 C -1,7 C 90 % 1020,8 hPa 0,0 l/m 0 min 0 min 0 W/m 18,8 km/h (3 Bft)
03.12.2014 17:16 -0,9 C -1,7 C 90 % 1020,8 hPa 0,0 l/m 0 min 0 min 0 W/m 16,7 km/h (3 Bft)
03.12.2014 17:18 -0,9 C -1,7 C 90 % 1020,7 hPa 0,0 l/m 0 min 0 min 0 W/m 16,7 km/h (3 Bft)
03.12.2014 17:20 -0,9 C -1,7 C 90 % 1020,7 hPa 0,0 l/m 0 min 0 min 0 W/m 18,8 km/h (3 Bft)
03.12.2014 17:22 -1,0 C -1,7 C 90 % 1020,7 hPa 0,0 l/m 0 min 0 min 0 W/m 14,6 km/h (3 Bft)
03.12.2014 17:24 -1,0 C -1,7 C 90 % 1020,7 hPa 0,0 l/m 0 min 0 min 0 W/m 18,8 km/h (3 Bft)
03.12.2014 17:26 -1,0 C -1,7 C 90 % 1020,7 hPa 0,0 l/m 0 min 0 min 0 W/m 18,8 km/h (3 Bft)
03.12.2014 17:28 -1,0 C -1,7 C 90 % 1020,7 hPa 0,0 l/m 0 min 0 min 0 W/m 16,7 km/h (3 Bft)
03.12.2014 17:30 -1,0 C -1,7 C 90 % 1020,7 hPa 0,0 l/m 0 min 0 min 0 W/m 14,6 km/h (3 Bft)
03.12.2014 17:32 -1,1 C -1,7 C 90 % 1020,7 hPa 0,0 l/m 0 min 0 min 0 W/m 14,6 km/h (3 Bft)
03.12.2014 17:34 -1,1 C -1,7 C 90 % 1020,7 hPa 0,0 l/m 0 min 0 min 0 W/m 20,9 km/h (4 Bft)
03.12.2014 17:36 -1,1 C -1,7 C 90 % 1020,7 hPa 0,0 l/m 0 min 0 min 0 W/m 18,8 km/h (3 Bft)
03.12.2014 17:38 -1,1 C -1,7 C 90 % 1020,7 hPa 0,0 l/m 0 min 0 min 0 W/m 18,8 km/h (3 Bft)
03.12.2014 17:40 -1,1 C -1,7 C 90 % 1020,7 hPa 0,0 l/m 0 min 0 min 0 W/m 18,8 km/h (3 Bft)
03.12.2014 17:42 -1,1 C -1,7 C 90 % 1020,7 hPa 0,0 l/m 0 min 0 min 0 W/m 20,9 km/h (4 Bft)
03.12.2014 17:44 -1,1 C -1,7 C 90 % 1020,7 hPa 0,0 l/m 0 min 0 min 0 W/m 23,0 km/h (4 Bft)
03.12.2014 17:46 -1,1 C -1,7 C 90 % 1020,7 hPa 0,0 l/m 0 min 0 min 0 W/m 18,8 km/h (3 Bft)
03.12.2014 17:48 -1,1 C -1,7 C 90 % 1020,8 hPa 0,0 l/m 0 min 0 min 0 W/m 20,9 km/h (4 Bft)
03.12.2014 17:50 -1,1 C -1,7 C 90 % 1020,7 hPa 0,0 l/m 0 min 0 min 0 W/m 18,8 km/h (3 Bft)
03.12.2014 17:52 -1,1 C -1,7 C 90 % 1020,7 hPa 0,0 l/m 0 min 0 min 0 W/m 12,6 km/h (3 Bft)
03.12.2014 17:54 -1,1 C -1,7 C 90 % 1020,7 hPa 0,0 l/m 0 min 0 min 0 W/m 16,7 km/h (3 Bft)
03.12.2014 17:56 -1,1 C -1,7 C 90 % 1020,8 hPa 0,0 l/m 0 min 0 min 0 W/m 18,8 km/h (3 Bft)
03.12.2014 17:58 -1,1 C -1,7 C 90 % 1020,8 hPa 0,0 l/m 0 min 0 min 0 W/m 14,6 km/h (3 Bft)
03.12.2014 18:00 -1,1 C -1,7 C 90 % 1020,7 hPa 0,0 l/m 0 min 0 min 0 W/m 16,7 km/h (3 Bft)
03.12.2014 18:02 -1,1 C -1,7 C 90 % 1020,7 hPa 0,0 l/m 0 min 0 min 0 W/m 18,8 km/h (3 Bft)
03.12.2014 18:05 -1,1 C -1,7 C 90 % 1020,7 hPa 0,0 l/m 0 min 0 min 0 W/m 16,7 km/h (3 Bft)
03.12.2014 18:06 -1,1 C -1,7 C 90 % 1020,7 hPa 0,0 l/m 0 min 0 min 0 W/m 16,7 km/h (3 Bft)
03.12.2014 18:08 -1,1 C -1,7 C 90 % 1020,7 hPa 0,0 l/m 0 min 0 min 0 W/m 20,9 km/h (4 Bft)
03.12.2014 18:10 -1,1 C -1,7 C 90 % 1020,7 hPa 0,0 l/m 0 min 0 min 0 W/m 14,6 km/h (3 Bft)
03.12.2014 18:12 -1,1 C -1,7 C 90 % 1020,7 hPa 0,0 l/m 0 min 0 min 0 W/m 12,6 km/h (3 Bft)
03.12.2014 18:14 -1,1 C -1,7 C 90 % 1020,7 hPa 0,0 l/m 0 min 0 min 0 W/m 10,5 km/h (2 Bft)
03.12.2014 18:16 -1,1 C -1,7 C 90 % 1020,8 hPa 0,0 l/m 0 min 0 min 0 W/m 6,3 km/h (2 Bft)
03.12.2014 18:18 -1,1 C -1,7 C 90 % 1020,7 hPa 0,0 l/m 0 min 0 min 0 W/m 10,5 km/h (2 Bft)
03.12.2014 18:20 -1,1 C -1,7 C 90 % 1020,7 hPa 0,0 l/m 0 min 0 min 0 W/m 10,5 km/h (2 Bft)
03.12.2014 18:22 -1,1 C -1,7 C 90 % 1020,8 hPa 0,0 l/m 0 min 0 min 0 W/m 16,7 km/h (3 Bft)
03.12.2014 18:24 -1,1 C -1,7 C 90 % 1020,8 hPa 0,0 l/m 0 min 0 min 0 W/m 14,6 km/h (3 Bft)
03.12.2014 18:26 -1,1 C -1,7 C 90 % 1020,7 hPa 0,0 l/m 0 min 0 min 0 W/m 10,5 km/h (2 Bft)
03.12.2014 18:28 -1,1 C -1,7 C 90 % 1020,7 hPa 0,0 l/m 0 min 0 min 0 W/m 16,7 km/h (3 Bft)
03.12.2014 18:30 -1,1 C -1,7 C 90 % 1020,7 hPa 0,0 l/m 0 min 0 min 0 W/m 14,6 km/h (3 Bft)
03.12.2014 18:32 -1,1 C -1,7 C 90 % 1020,7 hPa 0,0 l/m 0 min 0 min 0 W/m 18,8 km/h (3 Bft)
03.12.2014 18:34 -1,1 C -1,7 C 90 % 1020,8 hPa 0,0 l/m 0 min 0 min 0 W/m 20,9 km/h (4 Bft)
03.12.2014 18:36 -1,1 C -1,7 C 90 % 1020,7 hPa 0,0 l/m 0 min 0 min 0 W/m 23,0 km/h (4 Bft)
03.12.2014 18:38 -1,1 C -1,7 C 90 % 1020,8 hPa 0,0 l/m 0 min 0 min 0 W/m 18,8 km/h (3 Bft)
03.12.2014 18:40 -1,1 C -1,7 C 90 % 1020,7 hPa 0,0 l/m 0 min 0 min 0 W/m 16,7 km/h (3 Bft)
03.12.2014 18:42 -1,1 C -1,7 C 90 % 1020,8 hPa 0,0 l/m 0 min 0 min 0 W/m 23,0 km/h (4 Bft)
03.12.2014 18:44 -1,1 C -1,7 C 90 % 1020,8 hPa 0,0 l/m 0 min 0 min 0 W/m 23,0 km/h (4 Bft)
03.12.2014 18:46 -1,1 C -1,7 C 90 % 1020,8 hPa 0,0 l/m 0 min 0 min 0 W/m 18,8 km/h (3 Bft)
03.12.2014 18:48 -1,1 C -1,7 C 90 % 1020,8 hPa 0,0 l/m 0 min 0 min 0 W/m 10,5 km/h (2 Bft)
03.12.2014 18:50 -1,1 C -1,7 C 90 % 1020,8 hPa 0,0 l/m 0 min 0 min 0 W/m 14,6 km/h (3 Bft)
03.12.2014 18:52 -1,1 C -1,7 C 90 % 1020,8 hPa 0,0 l/m 0 min 0 min 0 W/m 12,6 km/h (3 Bft)
03.12.2014 18:54 -1,2 C -1,7 C 90 % 1020,8 hPa 0,0 l/m 0 min 0 min 0 W/m 20,9 km/h (4 Bft)
03.12.2014 18:56 -1,2 C -1,7 C 90 % 1020,8 hPa 0,0 l/m 0 min 0 min 0 W/m 20,9 km/h (4 Bft)
03.12.2014 18:58 -1,1 C -1,7 C 90 % 1020,8 hPa 0,0 l/m 0 min 0 min 0 W/m 18,8 km/h (3 Bft)
03.12.2014 19:00 -1,2 C -1,7 C 90 % 1020,8 hPa 0,0 l/m 0 min 0 min 0 W/m 14,6 km/h (3 Bft)
03.12.2014 19:02 -1,2 C -1,7 C 90 % 1020,7 hPa 0,0 l/m 0 min 0 min 0 W/m 16,7 km/h (3 Bft)
03.12.2014 19:04 -1,1 C -1,7 C 90 % 1020,7 hPa 0,0 l/m 0 min 0 min 0 W/m 14,6 km/h (3 Bft)
03.12.2014 19:06 -1,2 C -1,7 C 90 % 1020,7 hPa 0,0 l/m 0 min 0 min 0 W/m 18,8 km/h (3 Bft)
03.12.2014 19:08 -1,1 C -1,7 C 90 % 1020,8 hPa 0,0 l/m 0 min 0 min 0 W/m 16,7 km/h (3 Bft)
03.12.2014 19:10 -1,1 C -1,7 C 90 % 1020,8 hPa 0,0 l/m 0 min 0 min 0 W/m 23,0 km/h (4 Bft)
03.12.2014 19:12 -1,2 C -1,7 C 90 % 1020,9 hPa 0,0 l/m 0 min 0 min 0 W/m 20,9 km/h (4 Bft)
03.12.2014 19:14 -1,2 C -1,7 C 90 % 1020,9 hPa 0,0 l/m 0 min 0 min 0 W/m 23,0 km/h (4 Bft)
03.12.2014 19:16 -1,2 C -1,7 C 90 % 1020,9 hPa 0,0 l/m 0 min 0 min 0 W/m 23,0 km/h (4 Bft)
03.12.2014 19:18 -1,2 C -1,7 C 90 % 1020,7 hPa 0,0 l/m 0 min 0 min 0 W/m 20,9 km/h (4 Bft)
03.12.2014 19:20 -1,2 C -1,7 C 90 % 1020,8 hPa 0,0 l/m 0 min 0 min 0 W/m 10,5 km/h (2 Bft)
03.12.2014 19:22 -1,2 C -1,7 C 89 % 1020,8 hPa 0,0 l/m 0 min 0 min 0 W/m 20,9 km/h (4 Bft)
03.12.2014 19:24 -1,2 C -1,7 C 89 % 1020,8 hPa 0,0 l/m 0 min 0 min 0 W/m 27,2 km/h (4 Bft)
03.12.2014 19:26 -1,2 C -1,7 C 89 % 1020,8 hPa 0,0 l/m 0 min 0 min 0 W/m 12,6 km/h (3 Bft)
03.12.2014 19:28 -1,2 C -1,7 C 89 % 1020,9 hPa 0,0 l/m 0 min 0 min 0 W/m 23,0 km/h (4 Bft)
03.12.2014 19:30 -1,2 C -1,7 C 89 % 1020,9 hPa 0,0 l/m 0 min 0 min 0 W/m 16,7 km/h (3 Bft)
03.12.2014 19:32 -1,2 C -1,7 C 90 % 1020,9 hPa 0,0 l/m 0 min 0 min 0 W/m 12,6 km/h (3 Bft)
03.12.2014 19:34 -1,2 C -1,7 C 90 % 1020,9 hPa 0,0 l/m 0 min 0 min 0 W/m 20,9 km/h (4 Bft)
03.12.2014 19:36 -1,2 C -1,7 C 90 % 1020,8 hPa 0,0 l/m 0 min 0 min 0 W/m 18,8 km/h (3 Bft)
03.12.2014 19:38 -1,2 C -1,7 C 90 % 1020,8 hPa 0,0 l/m 0 min 0 min 0 W/m 16,7 km/h (3 Bft)
03.12.2014 19:40 -1,2 C -1,7 C 90 % 1020,7 hPa 0,0 l/m 0 min 0 min 0 W/m 16,7 km/h (3 Bft)
03.12.2014 19:42 -1,2 C -1,7 C 90 % 1020,8 hPa 0,0 l/m 0 min 0 min 0 W/m 18,8 km/h (3 Bft)
03.12.2014 19:44 -1,2 C -1,7 C 90 % 1020,7 hPa 0,0 l/m 0 min 0 min 0 W/m 12,6 km/h (3 Bft)
03.12.2014 19:46 -1,2 C -1,7 C 90 % 1020,9 hPa 0,0 l/m 0 min 0 min 0 W/m 14,6 km/h (3 Bft)
03.12.2014 19:48 -1,2 C -1,7 C 90 % 1020,8 hPa 0,0 l/m 0 min 0 min 0 W/m 12,6 km/h (3 Bft)
03.12.2014 19:50 -1,2 C -1,7 C 90 % 1020,7 hPa 0,0 l/m 0 min 0 min 0 W/m 18,8 km/h (3 Bft)
03.12.2014 19:52 -1,2 C -1,7 C 90 % 1020,8 hPa 0,0 l/m 0 min 0 min 0 W/m 18,8 km/h (3 Bft)
03.12.2014 19:54 -1,2 C -1,7 C 90 % 1020,7 hPa 0,0 l/m 0 min 0 min 0 W/m 20,9 km/h (4 Bft)
03.12.2014 19:56 -1,2 C -1,7 C 90 % 1020,6 hPa 0,0 l/m 0 min 0 min 0 W/m 14,6 km/h (3 Bft)
03.12.2014 19:58 -1,2 C -1,7 C 90 % 1020,7 hPa 0,0 l/m 0 min 0 min 0 W/m 16,7 km/h (3 Bft)
03.12.2014 20:00 -1,2 C -1,7 C 90 % 1020,7 hPa 0,0 l/m 0 min 0 min 0 W/m 20,9 km/h (4 Bft)
03.12.2014 20:02 -1,2 C -1,7 C 90 % 1020,8 hPa 0,0 l/m 0 min 0 min 0 W/m 18,8 km/h (3 Bft)
03.12.2014 20:04 -1,2 C -1,7 C 90 % 1020,7 hPa 0,0 l/m 0 min 0 min 0 W/m 16,7 km/h (3 Bft)
03.12.2014 20:06 -1,2 C -1,7 C 90 % 1020,8 hPa 0,0 l/m 0 min 0 min 0 W/m 14,6 km/h (3 Bft)
03.12.2014 20:08 -1,2 C -1,7 C 90 % 1020,8 hPa 0,0 l/m 0 min 0 min 0 W/m 23,0 km/h (4 Bft)
03.12.2014 20:10 -1,2 C -1,7 C 90 % 1020,6 hPa 0,0 l/m 0 min 0 min 0 W/m 14,6 km/h (3 Bft)
03.12.2014 20:12 -1,2 C -1,7 C 90 % 1020,6 hPa 0,0 l/m 0 min 0 min 0 W/m 16,7 km/h (3 Bft)
03.12.2014 20:14 -1,2 C -1,7 C 90 % 1020,7 hPa 0,0 l/m 0 min 0 min 0 W/m 16,7 km/h (3 Bft)
03.12.2014 20:16 -1,2 C -1,7 C 90 % 1020,7 hPa 0,0 l/m 0 min 0 min 0 W/m 14,6 km/h (3 Bft)
03.12.2014 20:18 -1,2 C -1,7 C 90 % 1020,7 hPa 0,0 l/m 0 min 0 min 0 W/m 14,6 km/h (3 Bft)
03.12.2014 20:20 -1,2 C -1,7 C 90 % 1020,7 hPa 0,0 l/m 0 min 0 min 0 W/m 16,7 km/h (3 Bft)
03.12.2014 20:22 -1,2 C -1,7 C 90 % 1020,7 hPa 0,0 l/m 0 min 0 min 0 W/m 18,8 km/h (3 Bft)
03.12.2014 20:24 -1,2 C -1,7 C 90 % 1020,7 hPa 0,0 l/m 0 min 0 min 0 W/m 14,6 km/h (3 Bft)
03.12.2014 20:26 -1,1 C -1,7 C 90 % 1020,7 hPa 0,0 l/m 0 min 0 min 0 W/m 14,6 km/h (3 Bft)
03.12.2014 20:28 -1,1 C -1,7 C 90 % 1020,8 hPa 0,0 l/m 0 min 0 min 0 W/m 10,5 km/h (2 Bft)
03.12.2014 20:30 -1,1 C -1,7 C 90 % 1020,7 hPa 0,0 l/m 0 min 0 min 0 W/m 18,8 km/h (3 Bft)
03.12.2014 20:32 -1,1 C -1,7 C 90 % 1020,8 hPa 0,0 l/m 0 min 0 min 0 W/m 16,7 km/h (3 Bft)
03.12.2014 20:34 -1,1 C -1,7 C 90 % 1020,8 hPa 0,0 l/m 0 min 0 min 0 W/m 14,6 km/h (3 Bft)
03.12.2014 20:36 -1,1 C -1,7 C 90 % 1020,8 hPa 0,0 l/m 0 min 0 min 0 W/m 10,5 km/h (2 Bft)
03.12.2014 20:38 -1,1 C -1,7 C 90 % 1020,8 hPa 0,0 l/m 0 min 0 min 0 W/m 10,5 km/h (2 Bft)
03.12.2014 20:40 -1,1 C -1,7 C 90 % 1020,8 hPa 0,0 l/m 0 min 0 min 0 W/m 12,6 km/h (3 Bft)
03.12.2014 20:42 -1,1 C -1,7 C 90 % 1020,8 hPa 0,0 l/m 0 min 0 min 0 W/m 12,6 km/h (3 Bft)
03.12.2014 20:44 -1,1 C -1,7 C 90 % 1020,8 hPa 0,0 l/m 0 min 0 min 0 W/m 18,8 km/h (3 Bft)
03.12.2014 20:46 -1,1 C -1,7 C 90 % 1020,7 hPa 0,0 l/m 0 min 0 min 0 W/m 16,7 km/h (3 Bft)
03.12.2014 20:48 -1,1 C -1,7 C 90 % 1020,7 hPa 0,0 l/m 0 min 0 min 0 W/m 20,9 km/h (4 Bft)
03.12.2014 20:50 -1,1 C -1,7 C 90 % 1020,7 hPa 0,0 l/m 0 min 0 min 0 W/m 20,9 km/h (4 Bft)
03.12.2014 20:52 -1,1 C -1,7 C 90 % 1020,7 hPa 0,0 l/m 0 min 0 min 0 W/m 14,6 km/h (3 Bft)
03.12.2014 20:54 -1,1 C -1,7 C 90 % 1020,6 hPa 0,0 l/m 0 min 0 min 0 W/m 8,4 km/h (2 Bft)
03.12.2014 20:56 -1,1 C -1,7 C 90 % 1020,7 hPa 0,0 l/m 0 min 0 min 0 W/m 16,7 km/h (3 Bft)
03.12.2014 20:58 -1,0 C -1,7 C 90 % 1020,7 hPa 0,0 l/m 0 min 0 min 0 W/m 14,6 km/h (3 Bft)
03.12.2014 21:00 -1,0 C -1,7 C 90 % 1020,6 hPa 0,0 l/m 0 min 0 min 0 W/m 8,4 km/h (2 Bft)
03.12.2014 21:02 -1,0 C -1,7 C 90 % 1020,7 hPa 0,0 l/m 0 min 0 min 0 W/m 6,3 km/h (2 Bft)
03.12.2014 21:04 -1,0 C -1,7 C 90 % 1020,7 hPa 0,0 l/m 0 min 0 min 0 W/m 10,5 km/h (2 Bft)
03.12.2014 21:06 -1,0 C -1,7 C 90 % 1020,6 hPa 0,0 l/m 0 min 0 min 0 W/m 8,4 km/h (2 Bft)
03.12.2014 21:08 -1,0 C -1,7 C 90 % 1020,7 hPa 0,0 l/m 0 min 0 min 0 W/m 14,6 km/h (3 Bft)
03.12.2014 21:10 -1,0 C -1,7 C 90 % 1020,7 hPa 0,0 l/m 0 min 0 min 0 W/m 12,6 km/h (3 Bft)
03.12.2014 21:12 -0,9 C -1,7 C 90 % 1020,7 hPa 0,0 l/m 0 min 0 min 0 W/m 14,6 km/h (3 Bft)
03.12.2014 21:14 -0,9 C -1,7 C 90 % 1020,7 hPa 0,0 l/m 0 min 0 min 0 W/m 14,6 km/h (3 Bft)
03.12.2014 21:16 -0,9 C -1,7 C 90 % 1020,6 hPa 0,0 l/m 0 min 0 min 0 W/m 16,7 km/h (3 Bft)
03.12.2014 21:18 -0,9 C -1,7 C 90 % 1020,6 hPa 0,0 l/m 0 min 0 min 0 W/m 12,6 km/h (3 Bft)
03.12.2014 21:20 -0,9 C -1,7 C 90 % 1020,6 hPa 0,0 l/m 0 min 0 min 0 W/m 18,8 km/h (3 Bft)
03.12.2014 21:22 -0,9 C -1,7 C 90 % 1020,6 hPa 0,0 l/m 0 min 0 min 0 W/m 18,8 km/h (3 Bft)
03.12.2014 21:24 -0,9 C -1,7 C 90 % 1020,6 hPa 0,0 l/m 0 min 0 min 0 W/m 14,6 km/h (3 Bft)
03.12.2014 21:26 -0,9 C -1,7 C 90 % 1020,6 hPa 0,0 l/m 0 min 0 min 0 W/m 14,6 km/h (3 Bft)
03.12.2014 21:28 -0,9 C -1,7 C 90 % 1020,7 hPa 0,0 l/m 0 min 0 min 0 W/m 12,6 km/h (3 Bft)
03.12.2014 21:30 -0,9 C -1,7 C 90 % 1020,6 hPa 0,0 l/m 0 min 0 min 0 W/m 14,6 km/h (3 Bft)
03.12.2014 21:32 -0,9 C -1,7 C 90 % 1020,5 hPa 0,0 l/m 0 min 0 min 0 W/m 14,6 km/h (3 Bft)
03.12.2014 21:34 -0,9 C -1,7 C 90 % 1020,6 hPa 0,0 l/m 0 min 0 min 0 W/m 12,6 km/h (3 Bft)
03.12.2014 21:36 -0,9 C -1,7 C 90 % 1020,6 hPa 0,0 l/m 0 min 0 min 0 W/m 10,5 km/h (2 Bft)
03.12.2014 21:38 -0,9 C -1,7 C 90 % 1020,6 hPa 0,0 l/m 0 min 0 min 0 W/m 14,6 km/h (3 Bft)
03.12.2014 21:40 -0,9 C -1,7 C 90 % 1020,6 hPa 0,0 l/m 0 min 0 min 0 W/m 10,5 km/h (2 Bft)
03.12.2014 21:42 -0,9 C -1,7 C 90 % 1020,5 hPa 0,0 l/m 0 min 0 min 0 W/m 18,8 km/h (3 Bft)
03.12.2014 21:44 -0,9 C -1,7 C 90 % 1020,6 hPa 0,0 l/m 0 min 0 min 0 W/m 14,6 km/h (3 Bft)
03.12.2014 21:46 -0,9 C -1,7 C 90 % 1020,6 hPa 0,0 l/m 0 min 0 min 0 W/m 12,6 km/h (3 Bft)
03.12.2014 21:48 -0,9 C -1,7 C 90 % 1020,5 hPa 0,0 l/m 0 min 0 min 0 W/m 10,5 km/h (2 Bft)
03.12.2014 21:50 -0,9 C -1,7 C 90 % 1020,4 hPa 0,0 l/m 0 min 0 min 0 W/m 14,6 km/h (3 Bft)
03.12.2014 21:52 -0,9 C -1,7 C 90 % 1020,4 hPa 0,0 l/m 0 min 0 min 0 W/m 16,7 km/h (3 Bft)
03.12.2014 21:54 -0,9 C -1,7 C 90 % 1020,5 hPa 0,0 l/m 0 min 0 min 0 W/m 16,7 km/h (3 Bft)
03.12.2014 21:56 -0,8 C -1,7 C 90 % 1020,5 hPa 0,0 l/m 0 min 0 min 0 W/m 10,5 km/h (2 Bft)
03.12.2014 21:58 -0,8 C -1,7 C 90 % 1020,5 hPa 0,0 l/m 0 min 0 min 0 W/m 14,6 km/h (3 Bft)
03.12.2014 22:00 -0,8 C -1,7 C 90 % 1020,5 hPa 0,0 l/m 0 min 0 min 0 W/m 12,6 km/h (3 Bft)
03.12.2014 22:02 -0,8 C -1,1 C 90 % 1020,6 hPa 0,0 l/m 0 min 0 min 0 W/m 16,7 km/h (3 Bft)
03.12.2014 22:04 -0,8 C -1,7 C 90 % 1020,6 hPa 0,0 l/m 0 min 0 min 0 W/m 18,8 km/h (3 Bft)
03.12.2014 22:06 -0,8 C -1,7 C 90 % 1020,5 hPa 0,0 l/m 0 min 0 min 0 W/m 20,9 km/h (4 Bft)
03.12.2014 22:08 -0,8 C -1,7 C 90 % 1020,5 hPa 0,0 l/m 0 min 0 min 0 W/m 14,6 km/h (3 Bft)
03.12.2014 22:10 -0,8 C -1,7 C 90 % 1020,5 hPa 0,0 l/m 0 min 0 min 0 W/m 20,9 km/h (4 Bft)
03.12.2014 22:12 -0,8 C -1,7 C 90 % 1020,5 hPa 0,0 l/m 0 min 0 min 0 W/m 18,8 km/h (3 Bft)
03.12.2014 22:14 -0,8 C -1,7 C 90 % 1020,5 hPa 0,0 l/m 0 min 0 min 0 W/m 18,8 km/h (3 Bft)
03.12.2014 22:16 -0,8 C -1,1 C 90 % 1020,4 hPa 0,0 l/m 0 min 0 min 0 W/m 18,8 km/h (3 Bft)
03.12.2014 22:18 -0,8 C -1,1 C 90 % 1020,5 hPa 0,0 l/m 0 min 0 min 0 W/m 20,9 km/h (4 Bft)
03.12.2014 22:20 -0,8 C -1,1 C 90 % 1020,4 hPa 0,0 l/m 0 min 0 min 0 W/m 16,7 km/h (3 Bft)
03.12.2014 22:22 -0,8 C -1,1 C 90 % 1020,4 hPa 0,0 l/m 0 min 0 min 0 W/m 16,7 km/h (3 Bft)
03.12.2014 22:24 -0,8 C -1,1 C 90 % 1020,4 hPa 0,0 l/m 0 min 0 min 0 W/m 16,7 km/h (3 Bft)
03.12.2014 22:26 -0,8 C -1,1 C 90 % 1020,4 hPa 0,0 l/m 0 min 0 min 0 W/m 10,5 km/h (2 Bft)
03.12.2014 22:28 -0,8 C -1,1 C 90 % 1020,4 hPa 0,0 l/m 0 min 0 min 0 W/m 8,4 km/h (2 Bft)
03.12.2014 22:30 -0,8 C -1,1 C 90 % 1020,4 hPa 0,0 l/m 0 min 0 min 0 W/m 16,7 km/h (3 Bft)
03.12.2014 22:32 -0,8 C -1,1 C 90 % 1020,4 hPa 0,0 l/m 0 min 0 min 0 W/m 18,8 km/h (3 Bft)
03.12.2014 22:34 -0,8 C -1,1 C 90 % 1020,4 hPa 0,0 l/m 0 min 0 min 0 W/m 16,7 km/h (3 Bft)
03.12.2014 22:36 -0,8 C -1,7 C 90 % 1020,4 hPa 0,0 l/m 0 min 0 min 0 W/m 12,6 km/h (3 Bft)
03.12.2014 22:38 -0,8 C -1,1 C 90 % 1020,4 hPa 0,0 l/m 0 min 0 min 0 W/m 18,8 km/h (3 Bft)
03.12.2014 22:40 -0,8 C -1,7 C 90 % 1020,3 hPa 0,0 l/m 0 min 0 min 0 W/m 16,7 km/h (3 Bft)
03.12.2014 22:42 -0,8 C -1,1 C 90 % 1020,3 hPa 0,0 l/m 0 min 0 min 0 W/m 18,8 km/h (3 Bft)
03.12.2014 22:44 -0,8 C -1,1 C 90 % 1020,3 hPa 0,0 l/m 0 min 0 min 0 W/m 10,5 km/h (2 Bft)
03.12.2014 22:46 -0,7 C -1,1 C 90 % 1020,3 hPa 0,0 l/m 0 min 0 min 0 W/m 16,7 km/h (3 Bft)
03.12.2014 22:48 -0,7 C -1,1 C 90 % 1020,3 hPa 0,0 l/m 0 min 0 min 0 W/m 16,7 km/h (3 Bft)
03.12.2014 22:50 -0,7 C -1,1 C 90 % 1020,3 hPa 0,0 l/m 0 min 0 min 0 W/m 16,7 km/h (3 Bft)
03.12.2014 22:52 -0,7 C -1,1 C 90 % 1020,3 hPa 0,0 l/m 0 min 0 min 0 W/m 14,6 km/h (3 Bft)
03.12.2014 22:54 -0,7 C -1,1 C 90 % 1020,3 hPa 0,0 l/m 0 min 0 min 0 W/m 10,5 km/h (2 Bft)
03.12.2014 22:56 -0,7 C -1,1 C 90 % 1020,4 hPa 0,0 l/m 0 min 0 min 0 W/m 10,5 km/h (2 Bft)
03.12.2014 22:58 -0,7 C -1,1 C 90 % 1020,3 hPa 0,0 l/m 0 min 0 min 0 W/m 14,6 km/h (3 Bft)
03.12.2014 23:00 -0,7 C -1,1 C 90 % 1020,3 hPa 0,0 l/m 0 min 0 min 0 W/m 14,6 km/h (3 Bft)
03.12.2014 23:02 -0,7 C -1,1 C 90 % 1020,2 hPa 0,0 l/m 0 min 0 min 0 W/m 16,7 km/h (3 Bft)
03.12.2014 23:04 -0,7 C -1,1 C 90 % 1020,3 hPa 0,0 l/m 0 min 0 min 0 W/m 16,7 km/h (3 Bft)
03.12.2014 23:06 -0,7 C -1,1 C 90 % 1020,2 hPa 0,0 l/m 0 min 0 min 0 W/m 14,6 km/h (3 Bft)
03.12.2014 23:08 -0,7 C -1,1 C 90 % 1020,2 hPa 0,0 l/m 0 min 0 min 0 W/m 10,5 km/h (2 Bft)
03.12.2014 23:10 -0,7 C -1,1 C 90 % 1020,2 hPa 0,0 l/m 0 min 0 min 0 W/m 8,4 km/h (2 Bft)
03.12.2014 23:12 -0,7 C -1,1 C 90 % 1020,2 hPa 0,0 l/m 0 min 0 min 0 W/m 12,6 km/h (3 Bft)
03.12.2014 23:14 -0,7 C -1,1 C 90 % 1020,2 hPa 0,0 l/m 0 min 0 min 0 W/m 10,5 km/h (2 Bft)
03.12.2014 23:16 -0,7 C -1,1 C 90 % 1020,2 hPa 0,0 l/m 0 min 0 min 0 W/m 18,8 km/h (3 Bft)
03.12.2014 23:18 -0,7 C -1,1 C 90 % 1020,2 hPa 0,0 l/m 0 min 0 min 0 W/m 10,5 km/h (2 Bft)
03.12.2014 23:20 -0,7 C -1,1 C 90 % 1020,2 hPa 0,0 l/m 0 min 0 min 0 W/m 10,5 km/h (2 Bft)
03.12.2014 23:22 -0,7 C -1,1 C 90 % 1020,2 hPa 0,0 l/m 0 min 0 min 0 W/m 14,6 km/h (3 Bft)
03.12.2014 23:24 -0,7 C -1,1 C 90 % 1020,1 hPa 0,0 l/m 0 min 0 min 0 W/m 8,4 km/h (2 Bft)
03.12.2014 23:26 -0,7 C -1,1 C 90 % 1020,1 hPa 0,0 l/m 0 min 0 min 0 W/m 10,5 km/h (2 Bft)
03.12.2014 23:28 -0,7 C -1,1 C 90 % 1020,2 hPa 0,0 l/m 0 min 0 min 0 W/m 8,4 km/h (2 Bft)
03.12.2014 23:30 -0,7 C -1,1 C 90 % 1020,1 hPa 0,0 l/m 0 min 0 min 0 W/m 10,5 km/h (2 Bft)
03.12.2014 23:32 -0,7 C -1,1 C 90 % 1020,1 hPa 0,0 l/m 0 min 0 min 0 W/m 12,6 km/h (3 Bft)
03.12.2014 23:34 -0,7 C -1,1 C 90 % 1020,1 hPa 0,0 l/m 0 min 0 min 0 W/m 12,6 km/h (3 Bft)
03.12.2014 23:36 -0,7 C -1,1 C 90 % 1020,1 hPa 0,0 l/m 0 min 0 min 0 W/m 16,7 km/h (3 Bft)
03.12.2014 23:38 -0,7 C -1,1 C 90 % 1020,1 hPa 0,0 l/m 0 min 0 min 0 W/m 16,7 km/h (3 Bft)
03.12.2014 23:40 -0,7 C -1,1 C 90 % 1020,0 hPa 0,0 l/m 0 min 0 min 0 W/m 14,6 km/h (3 Bft)
03.12.2014 23:42 -0,7 C -1,1 C 90 % 1020,0 hPa 0,0 l/m 0 min 0 min 0 W/m 14,6 km/h (3 Bft)
03.12.2014 23:44 -0,7 C -1,1 C 90 % 1020,0 hPa 0,0 l/m 0 min 0 min 0 W/m 10,5 km/h (2 Bft)
03.12.2014 23:46 -0,7 C -1,1 C 90 % 1020,1 hPa 0,0 l/m 0 min 0 min 0 W/m 14,6 km/h (3 Bft)
03.12.2014 23:48 -0,7 C -1,1 C 90 % 1020,1 hPa 0,0 l/m 0 min 0 min 0 W/m 16,7 km/h (3 Bft)
03.12.2014 23:50 -0,7 C -1,1 C 90 % 1020,1 hPa 0,0 l/m 0 min 0 min 0 W/m 12,6 km/h (3 Bft)
03.12.2014 23:52 -0,7 C -1,1 C 90 % 1020,0 hPa 0,0 l/m 0 min 0 min 0 W/m 16,7 km/h (3 Bft)
03.12.2014 23:54 -0,7 C -1,1 C 90 % 1019,9 hPa 0,0 l/m 0 min 0 min 0 W/m 16,7 km/h (3 Bft)
03.12.2014 23:56 -0,7 C -1,1 C 90 % 1019,8 hPa 0,0 l/m 0 min 0 min 0 W/m 14,6 km/h (3 Bft)
03.12.2014 23:58 -0,7 C -1,1 C 90 % 1019,8 hPa 0,0 l/m 0 min 0 min 0 W/m 16,7 km/h (3 Bft)
_ Min-Zeit 18:54 07:56 00:00 00:20 - - - - 18:16
Minimum _ -1,2 C -1,7 C 87 % 1018,1 hPa - - - - 6,3 km/h (2 Bft)
_ Max-Zeit 00:00 00:00 08:02 10:44 00:00 00:00 06:52 12:58 16:18
Maximum _ 1,1 C 0,0 C 95 % 1021,3 hPa 0,0 l/m 0 min 2 min 35 W/m 27,2 km/h
O-NO (4 Bft)
Durchschnitt _ -0,3 C -1,0 C 91 % 1020,1 hPa #0,0 l/m #0 min. #10 min. 19 W/m 16,4 km/h (3 Bft)
© 2015 W. Hausmann